GFSSE_prec_cthk_060.txt.gz
RH
62 72 73 79 66 69 68 69 66 62 70 74 75 70 63 57 45 37 31 25 25 27 27 24 19 19 20 16 16 16 18 24 25 26 28 30 30 28 28 28 30 32 36
62 64 67 70 65 70 68 69 65 60 63 67 77 64 58 49 41 35 29 24 27 28 24 19 20 19 18 17 17 16 17 18 22 25 27 28 28 29 32 29 29 31 29
68 60 61 65 75 71 75 68 61 58 59 72 66 57 49 44 39 34 31 27 28 23 20 22 22 20 19 18 17 17 18 18 19 19 21 26 28 26 26 25 24 24 25
79 69 72 73 70 72 70 64 63 64 66 65 58 48 47 44 35 30 30 29 26 25 27 27 25 22 20 20 20 20 21 20 21 22 21 22 23 22 19 19 21 19 18
73 74 75 73 77 78 69 68 66 68 68 57 54 46 41 37 33 35 32 32 29 28 31 32 28 24 24 23 23 23 24 22 21 21 20 17 17 19 16 17 14 14 17
71 78 81 78 80 78 72 73 66 71 74 50 51 45 39 39 38 37 36 36 32 29 29 31 27 29 28 25 25 26 24 22 20 19 16 15 15 16 15 13 13 13 11
72 70 72 68 73 80 77 73 69 73 68 57 55 52 41 41 42 39 40 39 35 35 34 33 33 31 31 32 30 28 26 22 20 21 18 16 15 14 13 12 11 11 12
61 68 71 70 72 75 70 70 74 81 70 60 56 41 42 44 45 44 43 42 40 38 38 38 38 36 39 39 35 31 29 25 23 21 17 14 14 13 14 12 13 12 13
61 66 71 66 72 73 79 81 82 93 92 65 61 43 45 45 45 47 46 47 45 45 42 42 42 42 42 41 34 32 29 25 20 18 15 14 16 15 14 13 14 14 14
63 71 72 82 92 92 84 82 87 92 81 70 54 47 45 43 46 49 51 51 50 48 46 45 45 42 42 38 35 31 28 23 20 18 17 18 19 17 16 15 16 15 15
74 85 92 96 96 95 93 93 95 90 86 77 62 57 53 50 49 51 55 56 52 50 51 52 52 46 42 38 34 32 31 27 21 21 20 22 21 21 19 18 19 20 19
84 91 97 99 99 98 96 94 89 91 89 88 71 62 57 53 51 55 61 58 54 53 53 50 51 48 46 39 37 38 31 23 22 21 22 23 25 27 26 24 24 25 24
90 98 99 98 99 98 97 95 90 88 92 93 81 58 54 55 56 60 59 55 55 51 56 58 56 53 45 41 41 38 29 23 22 23 24 27 29 30 31 29 29 29 28
92 98 98 96 93 91 98 96 93 85 90 95 83 64 61 61 66 66 58 63 54 54 59 61 60 59 53 46 42 35 30 25 24 25 26 29 32 32 33 34 35 35 32
83 94 97 91 89 89 89 87 88 90 89 90 85 70 67 70 68 64 65 64 63 64 67 66 65 62 56 51 39 36 30 27 27 27 27 29 34 35 37 39 39 37 36
81 87 95 98 95 92 93 91 91 89 85 87 91 85 74 69 68 70 73 75 71 71 70 67 64 61 63 63 51 35 30 30 29 30 29 34 41 43 43 43 43 41 40
84 88 86 88 97 93 93 90 83 83 80 81 85 88 73 76 78 74 71 78 76 74 73 72 70 67 64 60 56 38 30 30 30 30 34 39 43 48 48 48 47 46 46
76 76 89 96 95 92 90 88 93 87 79 79 81 83 77 82 81 76 77 76 78 74 71 71 70 64 59 56 55 51 45 39 34 35 37 40 47 52 54 54 53 50 51
75 80 92 84 85 90 90 89 90 81 73 84 87 84 82 84 81 80 77 75 77 73 68 67 69 64 59 60 61 59 55 48 44 44 45 45 50 54 59 61 59 58 56
83 86 84 87 86 95 85 86 83 81 80 84 88 85 84 81 80 80 80 78 79 73 70 72 70 70 62 64 64 62 60 56 51 55 56 55 57 60 62 67 68 66 65
79 87 90 88 90 91 89 85 80 83 82 82 83 82 82 85 82 83 83 79 78 76 78 78 75 70 64 63 62 64 68 64 63 65 66 68 69 72 73 73 75 73 68
67 77 82 86 88 88 90 94 86 85 88 83 85 84 86 84 86 85 82 82 83 82 82 77 74 67 65 59 65 67 68 67 71 69 73 73 76 79 76 78 77 72 68
55 57 67 76 85 93 92 94 91 87 87 86 92 88 85 87 93 89 86 89 84 79 74 70 69 68 66 58 61 68 70 71 72 77 78 86 82 81 81 83 80 72 66
47 50 51 57 67 81 92 96 94 89 88 91 91 89 90 86 93 81 86 82 74 70 70 74 73 74 74 71 72 74 82 81 83 90 88 85 82 86 84 80 75 69 67
31 37 40 48 51 59 67 71 74 75 77 81 79 77 77 80 81 77 76 73 69 67 70 67 67 71 74 75 78 83 87 89 94 92 89 84 90 84 79 71 65 66 64
23 28 32 35 44 47 49 52 55 58 57 61 63 62 64 63 65 65 67 65 65 65 64 61 70 86 91 91 90 92 93 95 92 91 88 75 84 72 65 68 68 63 62

GFSSE_prec_cthk_066.txt.gz
RH
35 37 40 46 54 58 57 59 66 63 71 70 76 69 59 50 47 35 29 26 24 26 29 27 25 26 26 27 27 29 28 29 28 28 31 33 33 32 36 39 36 33 34
44 48 44 53 55 59 61 57 68 73 75 74 73 73 67 55 52 45 32 29 27 31 30 24 24 24 24 23 23 24 25 28 28 29 32 34 34 36 38 36 34 36 35
45 52 50 54 61 64 60 62 68 76 76 76 72 72 71 59 51 50 32 27 29 32 28 21 20 22 20 22 24 25 25 27 28 28 31 35 35 35 33 31 28 28 27
51 58 57 62 66 65 62 62 75 76 77 74 72 68 70 65 53 45 34 28 30 29 22 22 20 20 22 23 24 23 26 27 27 31 36 37 30 27 25 21 21 19 19
54 61 70 72 75 68 63 71 78 74 74 72 71 69 73 71 54 38 35 29 31 24 22 25 20 20 22 25 23 22 23 25 27 34 33 30 27 25 18 16 14 14 14
60 63 73 77 81 91 81 70 74 72 72 71 70 67 72 66 52 39 35 30 30 26 26 22 20 22 24 23 22 22 24 24 31 27 26 28 29 18 13 11 10 11 11
60 74 85 77 85 71 98 90 68 67 68 67 68 67 72 61 51 40 36 32 30 29 27 26 27 28 27 26 24 23 24 30 37 34 30 28 25 17 13 11 11 11 10
62 76 83 80 75 68 86 88 75 66 66 67 73 69 70 57 49 37 37 37 38 33 31 30 30 30 28 27 25 27 29 33 35 33 29 27 23 19 14 12 13 12 12
61 73 84 86 75 71 79 90 84 73 75 76 76 74 68 64 40 37 42 42 44 37 37 35 34 33 31 30 31 32 33 34 35 36 31 27 22 20 15 15 14 13 14
57 67 78 77 81 72 81 81 85 92 88 82 83 75 64 72 46 41 41 43 42 41 42 42 40 35 35 33 32 34 31 34 37 36 31 28 24 23 19 17 16 15 15
48 56 68 85 90 86 81 81 76 79 86 92 81 73 65 69 55 45 44 46 47 47 48 47 42 40 40 38 36 35 37 39 39 35 30 24 24 22 21 20 20 18 18
56 65 82 80 84 82 93 77 83 83 91 94 81 78 78 83 56 60 45 54 55 54 55 51 46 45 49 42 38 37 41 39 35 34 32 29 29 26 24 25 23 22 21
67 74 89 92 94 89 80 82 91 92 99 95 85 89 85 88 64 54 51 59 61 62 59 53 49 50 53 51 47 39 42 40 34 35 33 34 33 34 28 27 27 26 25
74 85 92 90 93 98 97 95 93 97 98 93 95 85 84 80 54 58 57 64 67 67 62 59 54 51 52 53 52 40 42 38 35 39 34 30 33 36 36 32 31 29 29
71 90 91 91 95 93 96 99 99 98 96 96 93 92 80 70 57 58 62 70 71 72 68 60 55 55 57 54 48 44 45 42 39 45 36 31 32 37 39 42 40 38 35
72 82 89 94 95 96 96 98 97 97 93 96 96 89 80 66 62 64 66 71 70 72 68 65 66 64 64 61 56 52 46 44 44 41 36 31 33 37 42 45 46 49 49
63 76 87 94 97 99 97 98 98 98 99 99 97 85 76 64 65 70 73 72 70 68 67 71 70 68 67 66 61 56 50 46 42 35 36 41 34 37 42 53 47 50 55
70 80 88 91 94 97 98 98 97 98 98 97 95 82 72 69 70 77 75 76 71 67 72 74 75 74 71 68 61 55 53 43 36 32 39 36 39 46 42 48 48 52 54
66 73 79 89 97 97 97 98 98 97 97 94 90 85 72 73 79 81 77 74 71 74 78 80 79 78 74 68 65 61 59 56 43 43 36 41 43 44 56 53 53 52 54
69 79 87 85 84 94 96 97 98 97 95 95 91 85 76 82 86 84 79 77 76 81 84 81 79 80 81 75 67 63 63 61 59 51 48 48 49 59 64 60 58 56 57
72 82 79 75 91 92 93 94 94 96 96 93 94 89 78 83 85 84 81 80 82 86 85 81 77 77 81 85 75 67 65 66 66 65 64 69 75 71 65 63 62 66 68
66 78 78 76 86 87 81 87 85 86 97 95 90 89 84 84 86 88 87 88 87 86 82 81 81 79 85 80 79 75 73 69 70 79 81 84 77 74 71 67 67 70 72
49 67 77 79 83 86 83 87 91 84 89 95 89 85 82 81 86 90 90 91 88 86 84 83 83 82 85 82 80 78 76 74 76 70 68 73 75 74 73 79 77 82 82
38 48 55 67 77 82 86 86 89 81 83 92 92 91 84 84 90 92 91 90 87 87 87 85 85 82 84 90 82 74 72 72 64 64 64 63 66 72 78 87 90 93 90
33 33 38 49 55 66 78 85 87 91 89 93 93 89 86 86 94 93 92 90 88 89 89 88 86 83 79 85 86 84 73 77 80 78 75 80 82 87 93 97 95 89 85
27 30 32 36 43 53 67 82 92 93 94 91 87 85 90 95 94 92 93 91 89 90 87 85 90 92 82 80 82 77 77 75 80 94 94 95 91 88 94 94 88 81 76

GFSSE_prec_cthk_069.txt.gz
RH
42 34 30 33 46 54 60 59 58 57 58 59 60 60 58 58 47 36 34 27 23 24 25 27 27 27 27 27 25 23 22 26 27 30 33 32 32 37 42 44 37 36 34
41 40 43 41 45 55 56 57 56 60 58 62 67 66 66 64 55 38 34 27 26 27 27 27 25 24 25 26 27 27 28 28 29 31 33 34 39 41 43 41 42 40 38
42 44 48 50 54 57 60 59 59 59 63 76 73 73 72 69 63 46 31 39 30 29 26 23 23 22 24 22 25 26 28 30 30 32 34 36 39 39 37 36 33 29 29
41 45 52 54 57 62 64 61 61 59 68 78 77 75 74 74 67 51 34 36 35 29 23 23 25 21 22 25 28 29 28 29 30 35 38 35 35 32 29 28 24 21 20
42 47 57 60 62 66 68 64 67 61 67 76 76 74 72 74 69 57 41 34 34 26 21 24 22 21 24 27 27 28 29 32 36 44 40 35 29 27 23 20 18 18 15
46 51 48 59 66 74 74 80 74 75 73 78 75 73 72 72 71 56 43 36 30 23 24 27 21 21 25 26 26 28 28 33 40 37 32 29 28 22 16 13 12 11 11
52 58 54 61 76 84 72 93 94 84 77 78 73 71 71 72 75 60 46 36 28 23 26 25 22 23 25 27 27 28 30 33 38 35 32 29 22 15 14 12 10 10 10
53 59 63 70 76 88 93 84 74 98 80 74 71 71 68 68 73 64 43 34 28 27 28 26 26 27 28 27 27 28 33 38 43 38 31 27 17 15 13 12 11 12 12
47 55 54 67 79 81 75 76 83 96 83 72 70 71 67 63 60 60 41 35 32 29 30 29 28 30 30 29 28 30 36 43 44 39 30 27 19 17 15 14 14 14 14
40 48 50 58 73 73 64 75 83 98 90 77 74 76 75 68 68 53 44 43 35 34 34 31 32 33 33 32 30 32 37 42 41 41 33 23 19 20 18 16 16 16 15
41 45 45 49 67 80 75 70 93 90 98 90 78 85 79 71 75 56 56 49 39 40 36 36 37 37 36 32 34 39 45 49 44 39 30 21 22 20 19 18 18 17 17
52 55 62 63 67 72 84 77 89 98 91 98 93 86 84 72 85 60 54 47 43 44 42 43 42 40 38 35 43 47 53 52 46 39 30 23 23 24 22 21 21 20 20
66 66 66 72 78 81 82 88 89 87 97 90 94 87 78 80 87 72 56 48 50 48 49 48 46 45 45 47 49 58 54 52 47 42 32 30 32 28 25 24 24 23 22
66 73 75 77 85 87 81 82 89 84 90 93 98 95 90 88 88 76 64 56 53 53 55 52 52 58 54 47 54 54 51 52 49 43 33 32 42 37 28 26 26 27 28
65 70 75 83 84 84 93 92 91 96 96 97 95 91 91 97 93 72 68 61 58 61 61 59 65 59 55 53 54 53 54 55 50 43 36 34 42 35 34 34 31 32 33
61 61 74 81 83 88 87 91 96 96 98 99 94 94 95 97 87 78 76 71 65 68 68 67 68 59 57 59 57 56 54 52 52 51 40 38 39 38 39 39 41 42 43
53 62 66 81 89 90 92 94 93 94 96 98 97 98 97 92 87 82 86 75 68 75 73 75 65 64 65 66 65 62 59 55 51 52 43 42 35 35 37 41 44 51 56
49 62 65 86 90 94 94 94 95 98 98 98 98 97 94 84 76 74 76 76 76 79 77 77 72 70 70 69 67 65 61 59 52 50 55 50 41 37 37 42 49 56 50
47 61 69 74 92 94 97 98 98 97 99 99 97 96 94 83 72 69 75 80 77 76 80 81 77 76 76 74 65 62 59 57 53 46 43 41 40 48 44 44 54 59 63
48 68 73 75 88 91 95 95 97 96 98 98 95 91 88 84 78 76 81 82 77 75 79 82 82 83 82 78 72 66 61 60 59 55 48 43 48 42 50 56 54 63 55
47 69 74 80 83 87 93 95 94 96 98 98 95 89 87 86 82 80 84 81 78 80 83 87 85 86 84 83 76 71 67 63 61 59 60 55 54 62 60 59 68 71 59
46 65 74 76 76 89 89 91 92 94 96 96 94 90 91 85 79 79 80 79 82 83 89 87 85 82 84 84 84 83 78 71 65 65 69 69 70 68 70 77 73 70 68
41 56 72 73 72 83 82 79 84 86 91 91 90 90 87 84 84 85 83 83 81 83 89 87 84 81 81 82 82 85 86 82 81 75 71 70 73 75 76 71 68 66 66
32 45 54 65 75 79 82 82 81 87 84 84 85 89 87 80 80 81 85 85 86 88 89 86 84 82 86 92 87 79 78 82 91 86 79 67 61 59 60 62 66 71 81
27 31 39 49 55 61 69 79 81 83 93 88 86 87 90 83 83 85 87 88 87 87 88 86 86 83 84 90 90 90 81 77 71 70 71 70 69 71 73 78 78 81 84
31 27 30 36 44 50 58 70 84 87 88 87 88 88 88 87 85 87 86 89 90 92 88 90 92 90 92 89 91 90 87 88 88 82 80 79 83 91 92 94 91 83 85

GFSSE_prec_cthk_072.txt.gz
RH
42 26 30 23 31 42 47 49 54 58 59 56 50 47 48 44 35 37 35 31 28 25 23 22 20 22 23 24 28 30 26 23 25 25 31 31 31 33 36 33 29 29 32
41 33 33 35 39 41 54 55 55 56 57 55 54 54 49 47 43 38 38 31 26 27 27 28 26 24 23 23 23 23 24 27 29 36 36 39 39 40 39 33 33 35 34
37 25 31 38 45 53 54 63 59 63 56 60 67 60 56 56 56 46 37 31 26 30 29 28 29 27 26 27 26 27 28 29 35 33 35 38 42 40 38 35 34 32 31
32 29 32 37 46 53 63 64 64 61 63 60 65 69 68 63 63 57 44 35 29 33 30 27 27 25 25 25 27 29 30 33 34 34 36 38 38 38 36 31 26 25 25
29 35 34 37 48 54 69 70 87 64 65 68 74 82 81 75 73 63 48 39 32 29 31 31 23 25 25 26 28 29 31 37 42 37 33 33 32 32 28 24 20 18 16
38 42 38 40 49 55 63 73 78 74 71 68 78 85 82 81 73 66 53 42 35 30 35 29 23 25 29 27 29 32 35 39 42 37 27 25 27 27 21 17 14 12 12
36 48 45 41 48 58 68 88 96 88 84 71 75 82 81 81 76 66 54 44 37 27 29 22 24 27 26 27 30 34 37 37 35 29 26 24 27 21 17 14 11 10 10
30 44 47 49 55 66 68 83 94 97 98 88 81 73 79 80 72 66 57 45 39 30 25 22 24 24 24 27 32 34 37 38 33 29 24 22 22 19 16 11 10 10 11
30 40 45 50 63 72 66 78 88 87 91 98 93 73 78 78 76 74 64 44 35 28 26 24 24 26 27 32 34 37 40 39 36 30 24 23 22 19 16 12 12 12 13
35 32 45 56 56 64 70 66 84 89 87 89 96 78 79 74 67 65 65 48 33 29 27 28 27 29 30 33 37 42 41 40 37 32 25 24 24 19 15 15 14 14 15
33 37 40 52 60 61 71 77 86 83 77 98 88 78 79 70 64 65 55 51 32 31 31 31 31 31 32 36 41 41 43 46 41 36 27 28 26 20 19 17 16 16 16
39 46 59 61 65 76 75 82 87 88 81 97 89 82 79 74 73 76 61 50 35 36 36 35 35 35 36 40 43 45 51 54 45 37 27 29 27 24 23 22 20 18 18
41 56 67 73 79 80 80 81 87 90 89 91 98 94 88 76 76 87 74 49 34 37 39 40 39 40 40 43 46 49 56 55 46 37 31 31 31 28 24 23 21 20 20
36 52 70 74 73 84 81 77 84 86 91 96 98 96 86 78 78 91 71 52 44 43 44 46 41 43 42 47 51 50 59 57 45 38 38 38 34 29 28 24 26 24 24
35 50 58 68 72 80 86 87 81 88 91 97 98 95 92 80 84 97 68 55 49 47 53 49 51 51 46 52 51 51 61 57 45 38 39 38 35 33 37 34 28 28 29
33 45 52 62 72 78 86 91 90 85 87 97 99 94 88 90 88 95 80 66 60 63 58 58 60 56 53 52 51 54 64 63 49 42 39 38 38 36 39 34 31 31 36
33 38 49 54 70 86 87 92 89 94 87 92 95 94 92 90 89 93 82 74 70 66 61 63 65 59 58 54 54 60 60 61 53 47 42 39 38 37 42 36 34 36 40
35 38 50 56 69 84 90 92 92 94 97 95 98 95 94 91 92 92 86 79 77 74 65 70 70 62 61 61 60 62 63 61 61 51 46 41 38 40 41 37 37 40 45
33 40 49 61 67 82 85 90 91 93 95 94 95 92 92 92 94 92 84 89 82 83 71 74 70 63 67 68 67 63 63 63 59 57 52 46 47 44 42 37 39 46 50
31 42 56 65 68 82 82 90 90 91 91 95 94 92 93 94 95 87 94 91 95 97 82 78 70 71 71 74 74 68 63 61 57 55 54 51 46 44 42 43 50 47 53
31 43 61 66 75 79 79 84 89 89 90 93 94 95 95 91 91 90 91 88 85 83 79 81 79 79 82 82 81 74 66 62 59 59 58 54 47 44 49 53 54 59 59
29 44 60 68 70 75 77 85 88 88 91 93 97 96 96 93 87 88 80 79 82 80 77 82 82 83 87 86 82 78 75 72 64 59 60 60 58 60 62 61 60 63 64
26 41 56 70 68 73 81 78 80 87 88 89 92 92 90 90 87 84 80 82 82 79 74 80 81 84 86 85 85 81 84 77 76 74 68 67 67 70 68 68 70 66 65
26 34 47 57 67 72 77 76 74 77 79 83 82 85 85 86 79 80 82 81 77 74 74 80 82 84 85 88 86 81 82 83 91 93 89 85 78 68 63 59 53 56 60
26 28 35 45 50 57 64 69 74 76 77 81 75 75 76 82 83 78 81 75 75 77 80 81 83 89 89 92 84 90 89 83 82 86 83 80 79 75 69 67 70 72 76
27 27 28 34 40 46 53 61 69 77 78 78 81 74 77 82 83 81 80 83 77 80 80 81 84 94 88 92 91 91 89 89 90 83 82 77 78 79 82 78 76 75 76

GFSSE_prec_cthk_075.txt.gz
RH
37 35 36 34 23 26 36 37 38 47 53 54 58 52 48 47 44 44 45 42 36 29 23 22 25 27 29 30 32 35 33 25 26 25 29 33 33 35 36 36 35 33 30
33 34 37 37 27 28 39 43 47 52 60 56 53 52 49 44 36 41 36 33 30 25 23 24 26 26 27 30 33 32 26 24 25 29 32 33 35 35 35 34 31 36 35
35 32 27 23 29 35 40 49 48 56 69 62 77 55 53 46 38 32 34 30 26 30 29 28 26 24 26 28 27 26 26 27 31 32 36 37 40 38 37 36 35 34 31
25 22 22 24 29 38 45 54 53 53 59 72 61 61 59 57 49 41 36 36 36 38 32 32 29 28 28 27 29 31 32 32 34 33 35 37 38 39 35 36 32 26 25
23 28 29 30 33 38 48 52 70 74 65 61 69 61 63 65 57 50 43 42 39 37 30 26 30 30 30 30 31 33 32 33 33 36 36 35 37 37 31 28 25 21 18
23 27 30 33 36 41 51 57 64 71 78 82 67 70 61 65 67 60 50 46 39 35 31 25 27 30 30 32 33 34 37 32 31 32 31 30 30 27 24 23 18 13 12
27 26 26 36 41 42 51 65 75 79 93 78 77 69 77 66 81 68 56 48 42 34 28 24 28 31 30 30 36 38 37 34 32 26 23 27 26 20 19 18 14 10 9
32 33 31 36 45 48 50 69 89 96 98 88 98 93 81 74 76 70 62 50 44 34 28 29 31 29 29 32 37 37 38 35 30 24 21 23 22 21 18 15 11 10 10
38 37 35 34 39 48 53 61 73 89 85 92 85 98 94 81 74 71 62 54 41 35 31 31 31 31 31 32 38 37 36 32 27 23 24 22 24 20 19 16 12 11 11
35 33 30 35 42 53 59 66 75 81 82 90 91 90 94 89 72 68 67 51 42 35 30 32 31 27 31 37 39 39 40 35 28 25 25 21 22 21 18 18 16 14 13
31 29 32 41 46 53 65 61 66 77 78 81 86 87 96 88 68 60 71 61 42 33 33 31 27 29 35 40 43 42 40 34 28 26 25 24 21 21 20 20 19 16 15
34 31 36 53 66 70 68 68 64 76 81 84 84 86 98 87 66 55 63 63 49 36 35 30 30 34 39 43 45 44 39 36 34 32 28 25 23 23 22 22 21 18 17
33 27 38 54 73 84 79 74 71 81 88 87 88 94 98 86 64 61 52 56 53 46 37 33 33 37 43 45 49 46 45 40 40 33 31 29 27 26 25 24 22 21 18
28 25 33 46 59 80 85 79 76 81 88 91 98 98 89 78 66 65 58 51 53 50 43 40 37 40 46 49 51 49 47 46 45 35 32 31 31 28 28 26 23 22 23
27 25 31 44 50 66 76 80 78 82 92 91 90 97 87 78 70 73 63 54 49 44 38 40 40 45 51 50 53 54 51 49 44 36 36 35 34 31 30 27 28 30 27
26 26 31 41 48 63 72 82 84 90 85 88 91 98 93 84 79 72 72 61 50 43 43 42 43 50 51 49 55 57 55 50 46 39 39 38 37 35 34 34 34 36 30
26 27 31 39 47 59 75 86 92 92 92 89 91 99 93 89 82 77 79 63 55 51 50 52 53 52 52 49 57 56 57 54 53 45 41 40 39 38 39 37 38 39 33
27 30 32 44 49 56 75 83 88 91 91 91 88 94 91 86 84 84 83 71 62 60 61 60 65 62 54 50 57 58 60 58 50 47 44 42 41 39 40 37 41 35 38
26 29 37 48 56 61 79 84 87 90 96 87 88 89 89 89 87 90 84 79 73 68 71 69 73 66 59 53 55 58 62 62 56 53 50 44 43 40 39 38 41 38 40
26 32 42 54 60 68 74 83 90 90 89 91 90 91 88 91 86 89 83 80 79 73 76 75 75 68 63 60 61 61 62 65 61 61 56 53 49 43 44 44 44 45 48
26 33 48 58 69 72 75 77 85 91 96 97 97 95 91 88 88 89 84 84 83 86 79 78 81 70 66 69 71 69 69 67 64 63 62 58 54 50 50 47 46 51 56
26 30 50 63 71 71 73 76 85 90 93 96 96 98 95 93 90 89 88 89 88 93 93 90 79 70 72 76 78 81 76 75 69 60 59 59 60 55 48 46 53 60 62
24 27 43 61 68 69 75 76 83 87 91 95 96 96 96 93 94 92 91 91 90 93 94 93 79 74 76 81 83 83 83 79 70 67 62 58 60 62 64 65 63 62 60
24 26 37 51 64 70 74 77 76 73 84 88 92 96 95 95 92 90 87 91 95 92 91 90 79 79 79 78 84 84 82 83 81 78 76 71 67 67 65 65 65 63 61
25 23 30 40 50 59 65 71 71 74 77 80 86 86 89 87 86 87 87 86 88 87 84 80 74 79 79 82 84 85 84 86 87 85 83 87 82 86 78 73 71 70 69
27 27 25 32 38 44 50 57 62 71 75 76 80 81 79 80 82 83 79 79 78 79 78 77 74 80 83 85 90 88 88 88 84 86 85 85 79 77 74 77 79 80 76

GFSSE_prec_cthk_078.txt.gz
RH
29 28 31 34 35 33 27 31 35 39 44 45 45 53 55 59 53 55 55 55 54 43 32 26 25 29 29 29 34 32 34 34 32 30 34 37 39 40 40 40 41 41 39
30 31 31 32 33 29 27 32 36 39 43 47 49 50 54 52 59 56 55 56 46 32 27 26 27 30 31 32 33 36 31 30 28 31 34 35 36 37 36 35 32 33 33
35 34 28 22 24 28 29 34 40 43 50 53 46 51 54 63 49 48 47 40 34 28 25 25 29 30 32 36 36 33 27 28 30 30 35 32 35 36 35 35 36 34 31
28 27 21 22 26 32 38 40 42 50 52 59 56 60 59 61 46 37 33 29 34 27 24 30 28 29 32 33 30 28 27 29 30 34 38 38 38 39 36 37 35 30 24
26 25 20 26 31 33 39 47 47 53 59 66 57 66 65 64 55 42 34 28 31 30 27 33 34 30 31 30 30 32 32 34 33 36 36 39 36 36 35 30 26 21 15
24 19 23 25 25 34 39 48 55 57 65 74 80 71 74 67 56 52 44 38 37 41 37 34 32 30 33 33 31 30 32 33 36 37 37 38 34 31 28 25 21 16 12
25 26 25 29 27 31 43 48 57 66 75 76 72 84 69 69 62 53 51 42 42 41 39 39 34 32 31 29 30 29 31 32 35 36 34 32 29 26 23 21 18 13 10
26 26 31 35 37 37 41 48 69 78 84 88 84 90 91 83 68 57 61 50 42 42 35 37 33 33 32 31 30 33 33 34 31 31 28 27 26 22 19 17 15 12 10
28 32 34 35 34 33 42 52 58 71 96 98 94 87 98 96 96 72 65 53 45 40 38 38 37 36 36 31 32 34 33 32 31 23 22 28 23 19 17 16 15 13 11
33 31 28 30 31 36 44 55 65 71 72 82 86 92 92 97 90 84 67 57 47 38 39 38 36 39 36 32 34 34 31 30 25 23 23 24 20 18 18 18 17 16 12
35 33 28 25 29 41 52 62 68 80 81 86 86 83 87 92 98 85 63 64 58 41 42 43 38 40 40 36 37 34 34 32 25 23 23 24 22 19 20 19 19 17 15
31 34 30 26 29 50 72 74 73 82 78 79 81 82 83 96 98 81 67 53 51 54 44 43 40 43 41 38 40 36 37 30 26 25 24 27 27 22 22 22 21 20 18
33 31 27 25 32 47 69 85 81 80 74 69 79 88 87 94 94 80 72 59 43 44 42 42 41 47 40 38 41 37 38 35 32 26 29 28 25 24 24 24 23 22 21
34 32 24 26 32 45 60 84 82 79 77 77 84 90 90 93 93 71 64 63 57 51 46 33 42 45 44 42 44 41 40 40 37 28 32 32 29 28 26 26 25 23 23
35 33 24 26 32 41 52 80 87 85 85 86 87 91 91 96 84 65 53 53 58 61 42 41 47 48 46 46 48 44 44 44 39 34 34 33 32 30 28 28 27 25 26
34 31 22 26 34 40 53 69 84 88 87 88 91 94 91 96 80 60 53 51 49 51 53 51 55 52 53 49 48 50 49 49 43 38 35 35 32 33 32 30 30 29 30
33 31 22 27 33 44 55 73 85 91 93 96 96 94 96 92 75 59 60 58 54 56 50 49 50 55 54 51 52 52 52 52 47 43 41 39 36 38 38 36 36 36 36
34 27 23 26 35 47 58 73 85 92 94 97 95 91 95 86 74 66 66 66 60 52 49 43 49 53 56 56 55 55 52 52 51 46 47 44 41 42 42 40 40 40 39
36 26 22 26 41 53 61 78 87 95 98 98 95 97 96 85 80 75 73 73 66 54 54 53 56 55 57 59 59 59 52 53 52 50 48 46 44 44 45 41 41 41 41
36 28 23 33 50 58 75 80 87 94 98 99 95 96 95 90 87 83 83 73 67 64 60 58 55 55 56 58 66 60 56 61 60 57 57 54 48 46 46 45 41 41 43
34 29 25 43 54 65 75 76 86 94 98 98 96 92 95 92 89 88 87 78 76 72 65 65 68 68 63 61 68 64 68 70 66 63 64 62 58 53 49 47 43 44 48
34 29 22 46 59 62 70 76 88 96 98 99 97 93 91 92 92 92 88 84 80 80 75 75 71 76 69 67 65 65 70 71 74 71 69 67 61 58 57 53 51 52 57
36 27 18 39 60 61 69 76 87 91 97 99 97 97 97 97 95 92 90 87 82 79 78 77 71 72 73 72 70 70 75 76 78 79 75 62 60 60 57 56 50 52 55
37 25 18 31 53 63 69 71 77 82 93 97 99 99 99 98 96 94 92 83 85 85 81 80 84 83 76 70 74 77 78 78 87 83 71 66 65 58 58 59 60 61 62
37 24 19 27 37 53 58 66 70 72 79 93 96 99 98 99 97 95 91 86 86 89 91 89 93 87 82 74 79 81 80 84 87 85 81 77 75 71 67 67 68 70 69
36 28 23 25 31 38 45 53 60 66 73 77 83 90 93 94 93 92 91 90 91 91 92 93 94 94 89 84 86 82 84 85 85 86 87 86 82 84 80 79 78 73 73

GFSSE_prec_cthk_084.txt.gz
RH
29 27 26 25 24 25 27 28 23 27 27 34 43 52 56 57 57 64 59 51 46 46 45 44 47 44 40 34 38 38 42 31 28 34 37 38 39 40 46 47 43 48 47
27 27 26 26 26 27 27 25 21 26 29 34 43 53 58 61 63 63 72 63 52 51 48 40 39 38 35 37 41 45 38 28 28 37 37 47 41 44 46 44 46 49 50
28 27 25 24 25 26 27 25 23 29 33 38 43 53 60 62 62 66 64 71 63 54 51 41 34 30 32 38 34 33 30 28 31 39 48 42 42 44 45 45 42 39 36
27 26 23 22 22 22 24 24 26 33 38 40 43 47 50 54 55 57 66 61 52 57 51 38 35 31 33 33 31 28 27 28 33 37 39 37 39 41 41 40 37 34 32
29 26 24 22 21 22 23 26 28 36 38 45 47 54 55 54 62 65 66 54 58 61 47 36 32 34 32 30 31 30 25 28 32 32 32 35 36 39 37 37 35 32 29
30 31 27 23 22 21 24 28 31 35 41 46 49 52 64 73 68 65 61 59 66 54 43 38 33 34 31 31 32 30 25 26 29 30 32 36 41 38 37 30 23 23 21
33 34 28 23 23 25 29 32 35 38 45 49 53 57 80 80 84 71 73 64 58 49 40 36 33 35 33 29 34 26 28 27 29 32 38 41 38 37 30 22 19 18 18
34 34 28 24 26 30 31 34 40 48 53 59 60 62 75 70 87 88 78 68 60 52 44 38 38 35 34 32 38 40 30 29 33 36 39 38 36 33 26 22 19 18 19
34 33 32 27 28 30 33 34 36 40 45 53 61 68 75 82 84 87 76 76 75 55 50 45 40 40 32 37 32 29 36 32 37 38 39 34 32 30 27 22 18 17 17
34 34 33 32 28 32 35 35 36 40 44 52 65 74 84 88 90 88 81 93 86 74 57 45 43 47 42 43 44 43 37 36 39 42 34 32 31 30 27 19 20 17 18
36 36 36 31 29 33 33 34 37 41 48 64 73 77 84 88 91 93 91 90 92 87 63 44 45 50 50 45 40 40 32 33 33 38 28 33 32 30 30 20 20 19 19
37 38 38 33 30 32 33 31 36 45 59 72 80 87 89 91 92 91 92 93 93 92 56 58 48 53 50 40 37 40 40 34 31 30 25 31 33 30 28 23 22 22 22
37 39 39 35 32 32 30 27 32 42 52 66 84 90 92 94 93 88 92 94 96 95 69 64 52 50 49 38 40 37 35 29 32 27 27 31 33 34 28 27 26 24 24
36 39 39 35 33 33 31 26 28 37 49 60 87 95 95 95 92 87 88 96 94 90 68 54 48 51 48 42 41 42 48 31 30 28 28 32 35 35 32 28 27 26 24
38 39 36 35 34 35 31 25 29 35 46 61 80 89 94 92 84 85 87 93 93 78 63 52 53 52 44 44 41 43 45 28 35 30 30 34 33 37 37 33 31 26 25
39 39 36 36 37 36 31 23 27 34 42 58 69 88 91 90 85 84 90 95 91 79 67 65 62 58 51 50 47 52 42 37 40 32 35 34 36 41 41 35 34 29 26
38 41 38 38 41 37 29 24 26 31 43 55 69 89 89 85 84 93 97 96 92 70 64 67 59 69 63 63 63 54 42 45 42 39 36 36 37 39 38 37 35 33 33
41 42 41 40 42 36 29 24 29 39 50 62 74 90 87 87 90 93 97 87 80 56 56 60 60 56 56 50 47 54 48 51 46 42 39 40 42 39 38 37 37 38 40
44 44 38 42 44 39 29 36 48 55 65 75 80 91 92 94 93 93 92 91 79 60 62 60 64 64 44 47 53 54 51 52 54 47 45 45 46 45 41 41 42 42 44
44 40 37 46 46 39 33 53 60 63 78 87 89 93 96 97 95 96 94 85 76 59 66 72 76 66 55 61 66 59 63 63 53 50 50 50 49 50 48 48 49 49 48
47 37 41 47 46 38 37 57 66 73 79 89 95 96 98 98 99 98 88 76 70 53 64 70 71 68 70 65 67 71 71 67 59 58 56 54 54 56 56 52 53 55 52
46 41 45 46 44 31 38 56 65 71 79 89 98 98 99 97 98 88 78 75 64 60 67 70 69 68 70 73 71 67 66 65 64 63 60 64 60 58 60 55 54 54 52
44 44 45 44 43 24 38 58 66 73 86 93 98 98 97 98 97 92 85 77 66 66 66 69 72 71 68 69 65 63 66 67 65 63 62 67 69 63 64 66 67 60 55
41 47 46 43 40 22 42 63 67 75 87 96 98 99 97 97 94 92 86 83 74 69 66 66 70 69 72 72 68 72 72 70 68 64 67 72 66 69 72 79 69 67 70
44 50 45 43 34 20 37 56 65 73 80 94 98 98 98 97 96 93 86 84 76 72 71 67 76 79 77 69 68 69 69 69 72 65 62 68 75 74 82 84 78 74 72
46 52 46 43 29 20 32 44 55 64 72 85 99 97 98 98 98 93 92 91 87 83 75 73 74 80 75 73 72 70 72 70 69 68 70 73 81 83 85 84 81 74 74

GFSSE_prec_cthk_087.txt.gz
RH
23 23 21 22 23 21 21 22 25 27 27 29 33 40 49 53 52 56 52 58 47 46 49 50 49 50 50 46 44 35 33 32 29 36 31 34 37 37 46 47 45 48 52
23 22 23 24 25 22 22 24 25 27 26 28 31 38 46 54 52 59 64 65 56 49 52 51 49 49 47 42 39 40 39 33 31 35 40 39 36 43 49 44 50 53 54
23 25 24 23 21 19 19 22 25 25 25 30 35 40 46 53 58 57 62 62 67 57 53 51 46 41 39 37 40 44 37 26 30 39 50 41 39 44 46 48 52 53 49
24 23 23 22 21 20 20 21 23 26 29 34 42 46 52 58 61 55 61 64 63 68 62 56 47 43 35 34 39 33 27 27 32 42 44 41 42 47 46 47 46 43 37
24 24 24 24 23 21 19 22 26 28 34 39 45 49 48 51 55 60 58 58 68 66 58 56 46 41 33 34 31 28 26 28 33 44 41 40 42 50 45 44 38 37 33
25 25 26 25 24 22 21 23 27 30 32 40 44 47 45 50 53 64 77 77 74 60 59 69 49 38 37 33 31 31 26 31 36 39 37 37 41 44 41 39 36 32 28
27 28 28 26 25 23 23 25 29 34 36 38 43 48 52 55 69 71 82 83 69 68 62 59 50 42 39 35 34 33 26 35 32 34 34 37 39 39 37 34 26 26 25
29 30 30 27 27 27 26 28 27 30 37 41 48 51 64 75 81 77 83 91 79 69 62 54 49 39 40 39 35 34 32 28 31 32 34 39 41 37 29 21 19 21 21
30 32 31 30 29 29 26 29 29 31 33 39 48 57 56 65 75 82 84 82 86 73 63 58 43 38 35 40 36 33 41 44 32 35 39 42 41 32 24 22 18 19 20
30 33 34 33 33 31 29 29 29 31 33 36 44 50 64 72 79 82 81 86 84 77 66 58 53 40 37 39 41 40 40 37 35 37 37 41 34 31 27 22 18 19 20
29 32 34 34 36 36 33 34 32 31 34 38 45 57 70 79 82 83 91 89 90 89 82 71 65 43 47 38 41 43 46 46 39 41 36 38 33 31 26 22 18 19 22
29 32 35 35 38 39 34 35 35 34 35 38 43 50 68 77 87 91 91 91 96 95 93 85 71 46 50 54 50 56 51 41 42 38 37 34 33 32 27 22 22 22 25
32 32 34 36 39 39 33 35 35 34 35 38 42 53 64 82 90 92 92 91 97 98 96 93 74 50 53 53 51 42 36 36 32 34 39 31 33 33 28 28 28 26 27
32 32 35 37 39 39 33 35 35 32 35 38 42 49 64 90 93 94 92 92 97 95 94 92 65 52 51 50 46 36 36 36 41 25 37 34 34 34 33 35 33 30 27
31 33 37 40 42 41 36 37 35 33 35 40 42 50 66 86 91 97 95 93 97 96 95 87 66 55 51 48 49 38 39 34 32 27 32 35 36 36 37 38 38 34 29
30 34 38 40 44 45 43 41 37 33 36 39 43 48 64 82 89 94 95 94 93 98 96 91 67 54 52 48 50 45 37 36 40 33 38 37 39 40 38 40 42 39 32
26 33 37 42 45 45 47 44 38 34 36 39 43 51 67 76 92 96 93 90 91 97 94 78 67 56 56 53 46 49 41 43 41 37 37 41 45 43 40 42 45 42 38
26 31 40 45 47 47 48 45 37 35 42 54 57 66 67 77 95 96 92 89 94 96 92 73 62 59 58 60 51 49 50 48 45 37 46 40 46 46 44 46 46 44 41
25 31 40 45 50 46 47 48 40 39 57 64 67 75 78 87 94 89 92 98 95 97 90 67 66 74 71 63 61 60 60 59 45 39 43 44 50 47 47 47 47 47 43
26 32 41 45 52 41 49 48 40 51 64 71 80 83 89 92 93 93 94 97 99 97 94 68 74 69 68 65 67 60 59 57 49 43 45 50 48 46 46 47 46 46 46
25 31 39 44 45 41 49 46 37 56 64 72 79 86 91 96 98 97 97 97 96 94 77 56 64 64 65 64 57 60 59 60 56 50 50 52 54 57 49 49 50 51 53
24 34 39 49 42 45 48 42 37 56 68 78 84 90 93 96 98 98 96 95 91 94 75 62 64 67 67 57 59 63 68 68 65 59 59 52 49 53 57 53 54 54 55
29 35 44 51 40 45 47 33 44 64 71 80 88 97 98 97 98 97 96 98 94 92 75 66 70 76 76 72 67 69 76 74 70 70 62 55 54 57 62 62 56 63 59
37 40 51 49 43 45 43 26 48 68 73 79 87 99 98 98 99 98 98 98 92 86 70 65 73 73 74 69 71 78 68 68 66 64 61 59 56 58 64 67 63 62 70
42 44 51 49 45 45 34 26 45 62 69 76 86 99 98 98 98 99 98 93 87 75 73 68 74 79 76 73 68 70 70 68 67 64 65 67 63 61 68 69 69 75 76
45 46 46 50 47 45 26 30 42 52 60 70 84 97 99 99 97 94 90 88 82 80 77 66 73 77 74 71 73 82 72 70 71 71 68 70 70 65 69 74 78 82 84

GFSSE_prec_cthk_093.txt.gz
RH
22 18 17 16 16 17 19 21 22 22 24 26 29 32 34 38 42 45 48 47 47 47 46 53 58 59 54 55 55 51 49 44 38 35 36 38 43 51 52 59 66 58 59
21 18 16 17 17 18 20 21 21 22 22 25 29 32 36 40 44 50 48 49 49 54 47 54 56 55 53 52 48 46 40 35 32 35 39 45 46 44 51 62 60 54 63
19 16 17 17 17 17 16 16 18 19 20 23 27 31 36 42 46 53 52 54 60 62 57 52 55 56 52 49 44 39 39 37 38 41 44 52 44 42 55 64 56 67 66
19 16 18 17 17 16 17 16 17 18 20 22 26 30 41 45 49 54 54 57 63 64 65 57 57 54 50 46 40 40 47 39 37 45 62 61 52 53 56 61 63 65 58
21 19 19 18 18 18 17 17 17 19 21 22 26 31 38 45 51 55 58 58 58 60 64 66 62 61 48 41 39 44 45 37 39 56 66 67 51 53 52 61 73 66 59
25 23 20 20 19 18 18 19 20 22 24 27 30 32 37 45 50 55 65 58 55 61 66 73 68 64 48 41 42 44 37 36 46 61 64 66 50 57 56 59 52 51 47
25 24 21 20 20 18 19 20 21 22 25 27 32 37 43 48 54 60 63 60 64 65 67 74 70 67 51 41 42 38 37 45 51 65 64 65 49 61 59 47 42 37 34
26 25 21 21 21 20 20 21 22 23 25 28 32 39 50 55 64 62 66 70 77 71 77 69 77 64 55 43 43 35 39 44 60 67 65 64 44 45 49 42 37 32 28
27 24 21 21 22 21 21 22 24 26 25 28 34 43 53 81 74 70 65 66 72 78 79 81 78 61 56 52 45 38 39 45 52 51 62 49 37 39 39 38 36 27 26
29 24 22 22 22 21 23 24 25 27 28 30 33 46 51 61 65 64 67 72 74 79 84 84 78 64 64 59 42 45 44 48 72 43 42 35 35 37 37 35 24 21 20
29 29 22 23 24 24 25 25 26 28 29 30 31 34 44 55 62 76 82 87 92 88 92 92 88 77 65 60 48 49 47 51 45 47 50 38 37 40 33 23 20 19 18
32 29 26 23 25 27 32 30 27 28 30 30 31 32 38 46 60 68 72 87 92 94 94 93 91 86 71 65 59 50 47 51 50 54 52 46 32 34 28 24 20 19 19
35 34 27 24 26 28 33 34 36 35 36 36 35 35 35 45 51 66 65 63 82 96 93 93 90 95 84 73 52 45 52 57 62 53 47 37 31 32 32 28 22 21 23
38 35 30 26 33 29 32 33 38 38 39 40 37 38 37 38 49 60 52 63 77 86 92 93 91 94 93 82 59 57 52 61 63 53 44 38 30 31 34 29 30 28 24
35 38 34 28 32 29 29 29 33 37 43 46 47 38 39 34 39 45 57 62 80 91 92 94 94 94 96 90 72 74 62 57 62 57 49 35 29 31 36 32 33 32 27
24 35 36 30 30 34 30 30 34 37 40 45 47 41 38 38 40 43 50 67 83 90 94 96 98 98 94 92 84 84 61 54 52 51 46 32 28 31 34 32 33 34 34
22 26 35 33 29 31 30 33 37 40 41 49 48 39 36 43 51 54 52 71 79 91 95 96 98 99 96 93 84 81 69 57 52 48 44 33 30 30 37 34 35 36 38
21 23 30 34 29 31 33 34 38 42 43 50 49 39 33 42 56 68 63 83 87 91 97 96 99 99 97 95 84 78 64 56 54 47 41 38 36 33 35 36 35 38 40
20 23 28 31 29 31 36 37 39 43 46 51 52 46 34 45 61 69 70 80 94 95 95 98 99 98 96 95 76 67 59 54 51 44 55 39 36 35 45 41 37 42 43
19 25 28 31 30 31 36 40 41 45 51 52 49 49 38 48 69 79 80 87 93 91 93 97 99 98 96 94 84 69 60 55 49 47 43 42 39 40 51 55 40 42 45
19 23 28 29 29 30 35 38 41 46 54 54 48 49 38 46 69 85 91 90 99 91 95 97 98 97 96 92 85 72 65 61 59 54 55 56 57 53 48 53 49 47 47
21 21 26 28 33 31 36 40 47 53 58 52 48 45 42 54 66 79 88 93 85 94 96 99 97 96 95 93 80 72 66 64 63 60 58 61 61 62 51 51 55 55 55
23 23 25 26 33 33 38 42 53 61 57 49 46 44 51 62 71 78 87 89 92 95 98 95 97 96 96 96 79 61 63 64 65 64 64 61 61 58 56 51 52 54 58
21 25 26 27 34 34 38 48 58 58 49 46 45 38 58 67 74 80 86 90 95 93 98 95 97 94 94 91 86 65 61 63 68 67 61 63 62 59 54 53 51 49 50
21 26 27 32 38 36 39 51 64 57 49 45 33 39 58 67 74 87 93 97 97 95 97 97 98 95 94 90 78 78 73 73 72 66 65 66 64 61 60 60 59 54 56
24 32 32 37 37 38 47 63 65 53 48 41 35 45 55 64 79 89 97 97 95 98 98 98 98 95 90 89 72 70 77 66 75 67 70 71 69 70 68 65 61 60 58

GFSSE_prec_cthk_096.txt.gz
RH
27 17 14 14 13 13 14 16 18 20 21 22 25 26 29 32 37 40 39 39 41 42 41 48 54 62 62 60 63 60 56 57 51 42 42 39 42 48 56 60 63 63 60
22 17 14 13 14 14 15 17 18 20 21 22 24 27 30 35 38 43 43 43 44 44 44 47 53 57 56 57 55 49 48 45 38 35 36 40 47 51 56 65 65 54 62
19 16 13 14 15 14 13 13 13 15 18 21 24 27 31 36 41 46 50 46 46 46 51 48 51 51 53 52 49 44 41 38 38 40 48 44 48 52 55 61 61 59 65
17 14 14 14 14 14 13 13 14 15 17 21 24 26 31 37 46 51 53 49 52 59 60 54 52 52 49 47 45 40 41 39 41 44 59 53 48 54 56 64 65 68 63
15 14 15 14 15 15 13 14 15 16 18 21 23 26 31 38 45 52 54 52 56 61 63 61 55 57 50 42 38 39 46 44 41 52 61 65 56 65 63 70 71 72 60
18 15 15 16 16 15 14 14 16 17 20 22 24 27 31 36 44 53 52 60 61 59 59 65 66 65 58 45 38 41 44 47 47 62 67 74 65 60 60 63 69 64 53
25 18 17 17 17 16 15 16 16 17 19 22 25 29 34 38 45 54 63 67 61 62 63 66 70 67 64 49 44 41 43 45 60 60 74 63 63 56 60 57 55 45 38
26 21 19 18 18 17 17 17 17 19 19 22 24 30 35 42 51 57 61 64 64 68 70 74 73 72 66 56 46 44 44 47 61 62 77 62 67 59 64 53 43 35 31
27 22 21 18 18 18 18 18 19 19 20 21 25 30 38 47 60 67 69 70 73 80 78 75 75 71 66 61 49 44 43 45 64 58 70 70 72 46 54 47 40 34 25
28 24 22 19 19 20 20 19 20 20 21 22 25 27 37 50 57 60 67 65 70 77 79 91 86 88 74 63 53 53 54 42 54 65 63 66 57 41 38 39 38 26 22
29 26 22 19 20 21 21 20 21 21 22 23 25 26 32 37 49 58 69 74 85 91 94 96 94 92 89 77 58 50 48 46 59 74 48 54 40 36 37 36 30 21 19
28 26 24 22 21 22 22 20 21 22 22 24 26 27 29 34 41 49 58 68 71 81 86 91 87 92 92 85 73 63 61 56 55 77 48 43 43 36 34 28 22 20 19
27 29 26 26 23 23 25 21 22 22 24 25 28 29 30 33 37 45 53 67 72 76 79 86 95 88 87 91 82 69 66 67 52 43 44 48 41 29 29 24 20 21 21
30 31 28 26 27 24 27 25 24 24 27 27 30 33 34 35 37 42 44 57 63 58 70 82 96 95 89 91 88 71 72 54 46 50 47 49 38 32 22 24 21 23 25
23 34 31 28 29 26 26 28 29 30 32 32 34 35 39 42 40 43 43 48 55 56 61 78 88 94 90 90 95 86 68 61 51 57 51 46 40 29 26 29 30 25 27
16 23 36 29 30 28 26 28 29 33 36 35 36 39 43 45 46 44 44 46 46 52 59 82 92 96 97 94 95 89 74 76 69 53 50 44 39 28 24 31 33 29 27
14 18 26 34 28 29 27 28 30 31 34 37 38 43 48 48 43 41 45 49 52 51 68 83 93 98 98 98 95 93 78 81 73 57 49 43 39 30 23 29 34 29 28
14 17 20 25 25 28 31 30 32 33 33 37 40 44 53 55 45 39 47 57 68 64 72 90 94 96 98 98 94 95 90 90 71 52 41 37 32 30 25 27 35 34 32
17 18 20 23 25 22 30 32 35 35 34 36 40 46 53 55 48 40 42 60 70 75 78 95 96 95 99 97 93 97 95 87 72 50 43 39 32 32 29 29 33 36 36
21 18 21 22 25 22 29 34 36 37 37 41 42 49 53 50 50 43 41 61 76 80 86 97 97 96 96 94 94 98 95 84 62 48 45 45 34 34 33 33 36 47 44
20 17 19 22 25 21 26 31 33 35 40 43 44 51 52 49 49 45 44 62 83 82 90 99 98 97 99 97 99 95 90 74 60 53 50 46 38 41 39 40 43 45 46
18 17 18 23 26 22 26 30 35 36 39 42 45 54 52 51 47 44 51 65 83 86 87 95 95 98 98 98 95 93 92 73 66 52 49 47 45 44 44 44 39 40 42
16 17 18 23 26 26 25 31 35 37 40 42 53 53 53 47 47 46 61 70 81 88 94 93 96 97 98 96 96 89 90 83 71 58 54 53 59 53 50 49 46 46 40
16 16 18 21 24 30 26 31 34 34 36 43 53 52 47 42 43 46 64 70 76 89 92 91 95 98 96 96 98 93 86 75 64 58 57 57 58 60 58 54 50 51 47
16 17 21 23 24 33 25 32 35 37 38 50 55 49 42 43 34 47 65 70 75 85 88 96 97 97 97 96 96 94 87 75 63 56 58 57 66 60 55 54 58 57 50
19 19 24 26 27 30 31 36 41 39 51 55 53 44 41 31 36 49 59 68 81 88 92 97 97 97 97 97 98 94 84 74 68 60 63 63 58 55 56 56 57 60 59

GFSSE_prec_cthk_102.txt.gz
RH
20 22 22 22 23 17 12 13 14 17 20 21 21 21 23 25 28 29 31 31 35 37 36 40 42 49 55 58 58 62 67 70 72 71 66 63 56 54 56 59 60 62 68
24 24 23 23 23 15 11 12 14 18 20 22 22 22 23 26 30 30 30 30 34 37 38 42 45 51 53 54 58 58 58 66 65 64 61 57 54 52 55 61 64 65 63
23 24 24 23 19 16 13 13 15 17 20 21 22 22 23 27 31 33 32 34 37 40 41 45 46 51 50 53 55 54 58 58 55 51 46 44 49 52 59 65 64 61 62
24 25 23 21 19 17 13 13 12 14 15 17 19 21 24 27 31 36 37 38 40 42 44 46 48 51 52 51 49 50 52 49 47 46 43 43 45 55 64 62 64 65 65
22 22 23 21 19 16 12 12 12 12 14 16 18 21 24 27 33 39 43 41 44 46 49 53 53 52 56 52 49 47 45 46 45 45 50 47 48 58 66 63 66 65 64
19 20 22 21 20 14 13 12 13 13 14 16 19 22 23 27 35 41 45 45 48 51 55 60 60 59 58 56 50 47 43 45 42 45 47 50 50 62 67 65 68 67 64
19 22 22 21 17 14 14 13 13 14 15 17 19 22 23 27 33 40 45 51 52 56 60 63 65 65 63 61 56 50 46 46 44 48 53 55 59 68 73 72 72 67 59
22 20 18 18 16 14 15 15 14 15 15 17 19 21 23 26 31 37 45 52 55 63 64 66 65 68 69 68 66 57 48 49 46 54 63 66 67 72 73 70 63 59 47
22 20 20 20 20 16 15 15 15 15 15 17 18 20 22 27 31 37 44 51 60 69 69 66 68 71 73 74 72 63 54 48 50 55 63 69 69 75 72 65 53 47 34
25 24 21 21 21 19 17 17 16 16 16 17 18 19 22 27 32 37 44 49 59 68 67 73 79 81 76 76 72 72 61 54 52 56 65 72 72 81 81 62 60 41 30
26 26 24 22 22 21 19 18 17 18 18 16 18 19 21 25 30 38 43 49 58 62 72 73 77 78 77 79 81 83 80 60 54 60 64 69 76 77 78 56 52 35 25
30 29 28 26 25 23 22 19 18 18 19 18 18 18 20 23 28 34 41 46 52 58 64 70 78 78 79 81 86 87 90 84 72 69 65 72 80 72 73 50 31 27 22
31 30 28 28 27 26 24 22 20 20 21 20 18 19 21 22 26 31 37 41 45 51 56 64 70 80 86 86 82 83 86 91 81 64 66 69 66 67 65 36 31 23 22
28 27 26 26 27 28 25 23 22 22 22 21 20 19 22 22 24 28 31 35 38 43 48 55 69 78 80 87 84 86 86 93 91 71 63 64 74 48 43 32 31 21 20
25 24 22 22 27 30 28 23 24 24 23 24 24 21 22 23 24 26 32 35 35 38 41 48 59 69 77 86 86 86 88 90 95 86 70 53 66 47 32 25 31 25 29
26 23 19 21 23 30 30 26 25 26 26 26 26 24 23 25 26 28 33 37 38 37 40 48 50 54 61 80 83 86 92 93 95 93 86 64 52 44 36 27 26 20 24
28 26 20 16 20 23 30 35 32 29 30 29 29 26 26 27 28 31 34 38 43 46 46 43 52 55 59 73 82 96 91 94 95 93 92 74 52 41 36 32 28 29 27
26 25 22 19 17 20 24 34 41 38 34 33 33 31 29 30 30 34 37 40 48 52 51 42 49 66 71 65 78 95 95 95 96 94 93 82 62 49 40 34 32 31 28
27 26 24 20 19 19 21 30 36 47 46 40 37 36 33 34 33 36 38 43 52 53 51 47 44 59 75 77 75 91 95 98 96 97 95 89 68 51 41 37 31 29 25
25 25 25 22 19 19 20 28 39 53 47 46 41 36 37 37 38 40 41 47 55 53 51 48 46 53 73 86 90 92 96 98 98 97 97 93 73 50 43 34 33 29 30
23 22 27 21 21 22 22 26 40 61 44 35 36 39 40 42 43 43 45 50 57 54 52 47 51 58 80 89 93 98 98 99 98 99 98 91 78 53 49 32 31 30 33
26 25 26 24 24 23 23 23 36 39 40 41 35 38 43 46 46 46 49 56 60 56 54 52 55 65 85 90 92 96 99 98 98 99 98 90 79 62 44 32 30 29 31
31 28 23 23 23 24 24 25 29 34 46 44 39 38 40 44 47 47 50 59 60 59 55 56 55 72 83 93 96 97 99 96 97 98 97 93 84 60 38 34 32 33 35
33 28 27 23 21 23 23 23 27 30 30 27 30 34 37 43 46 48 55 61 62 60 54 56 52 70 83 92 96 97 96 96 96 98 98 96 84 57 40 37 36 36 36
33 26 23 23 25 23 24 24 28 32 35 34 31 30 37 43 50 51 57 61 63 57 53 54 48 68 75 85 93 96 96 96 95 94 95 95 87 58 48 43 40 38 37
32 26 27 25 21 24 22 24 33 36 35 33 31 30 35 42 48 52 60 64 63 53 52 43 50 65 72 86 89 95 95 95 92 91 90 91 81 64 51 46 46 45 46

GFSSE_prec_cthk_105.txt.gz
RH
18 19 20 25 25 25 21 14 13 14 15 17 19 20 20 20 23 27 30 33 35 37 36 37 39 45 53 55 58 58 64 67 72 74 70 68 67 71 66 64 64 64 69
19 21 24 24 25 24 19 15 12 14 17 19 20 22 22 22 24 26 30 32 34 34 36 38 44 54 59 59 56 56 59 63 67 68 64 62 61 60 57 58 66 68 73
23 25 25 25 24 22 19 17 13 14 16 19 21 22 24 25 26 28 30 31 32 36 38 41 51 55 56 54 54 54 57 58 61 61 56 52 54 53 55 59 66 70 65
24 25 24 24 22 21 21 18 14 14 15 17 20 21 24 26 28 32 32 32 34 38 40 45 49 50 50 51 51 53 53 52 53 52 51 49 49 49 54 58 63 66 63
23 25 25 23 21 21 22 18 13 13 13 14 17 20 23 26 30 34 34 35 38 41 44 46 50 48 51 50 49 48 48 47 50 50 49 48 50 52 56 60 61 69 65
21 22 20 21 24 23 20 17 14 13 14 14 16 20 23 27 30 36 38 38 42 47 47 50 51 52 53 53 54 52 47 47 47 47 47 49 54 56 66 64 67 71 64
20 19 19 21 19 19 18 14 15 14 14 15 16 19 23 27 31 37 42 45 49 51 53 54 56 57 56 57 56 56 52 48 46 45 49 52 52 57 69 69 69 69 66
20 21 23 22 22 19 17 15 15 16 15 16 17 18 22 26 31 36 40 45 51 55 58 58 59 57 59 61 62 64 61 53 48 49 54 54 58 65 73 73 72 71 64
21 24 23 23 21 19 19 19 17 17 15 17 17 17 20 24 29 34 37 45 51 61 63 64 64 63 63 65 68 70 63 56 50 51 58 61 67 70 75 73 69 62 54
25 24 23 23 23 21 20 20 20 19 17 17 18 18 19 22 26 32 36 43 51 64 70 67 67 65 67 68 69 73 67 61 54 51 66 66 69 75 79 74 63 57 48
27 25 23 23 23 23 22 22 21 20 20 18 20 19 19 21 25 30 36 41 47 56 61 65 65 65 68 69 70 75 76 70 59 51 65 71 70 77 81 82 65 61 44
28 27 27 26 25 24 25 24 23 22 20 19 21 20 19 21 24 28 35 40 45 50 55 58 64 66 69 70 75 81 82 78 80 63 62 72 73 80 85 80 62 48 39
29 29 28 29 29 27 25 25 24 24 21 21 22 22 20 22 25 27 32 36 40 45 48 52 57 66 75 72 78 84 84 83 84 84 78 70 72 83 80 71 65 31 27
43 37 38 38 37 32 28 26 27 26 23 22 23 24 23 23 25 26 29 33 36 38 41 45 51 67 73 80 80 80 88 84 83 87 92 86 80 80 72 69 54 34 23
63 48 36 33 34 34 34 31 28 28 25 23 25 25 25 25 25 24 28 32 35 38 38 39 43 45 54 69 78 79 88 87 86 93 92 84 77 79 71 54 41 30 24
53 53 44 34 32 30 31 32 32 30 28 26 27 27 28 28 26 26 27 31 35 39 41 42 41 47 52 55 60 65 82 86 88 91 93 89 75 67 63 44 31 29 25
36 43 46 39 30 28 28 31 31 35 30 27 31 30 31 32 29 28 28 31 34 40 44 47 50 49 53 57 54 57 79 87 90 91 96 97 85 63 59 46 35 30 30
35 34 34 43 36 29 27 26 29 31 37 30 34 33 33 35 32 32 32 33 36 40 45 50 54 58 46 50 64 68 74 78 89 93 96 97 95 72 52 45 38 32 28
36 36 34 33 34 34 27 28 28 28 35 46 39 37 38 38 37 35 35 36 40 42 46 53 58 53 50 48 59 76 76 84 91 93 97 98 97 88 66 48 39 37 30
34 34 36 35 31 29 31 32 32 32 30 45 53 48 43 41 40 37 39 40 44 45 49 58 58 53 52 54 60 72 84 85 87 91 94 97 97 93 76 54 42 38 32
29 34 36 35 30 32 34 39 28 27 28 34 49 64 56 48 44 40 43 46 47 48 50 59 57 52 52 57 70 83 91 88 91 94 96 98 98 96 84 55 49 38 31
28 31 33 34 29 29 30 34 25 23 27 31 45 62 54 53 49 44 45 49 50 51 53 61 58 53 54 61 74 90 94 98 99 96 98 98 97 97 89 63 59 36 29
27 28 29 29 26 28 29 30 27 28 33 38 52 58 47 46 51 47 49 51 53 52 55 60 59 56 57 61 72 89 93 95 94 98 98 99 98 93 86 65 63 35 29
29 29 30 31 29 32 30 28 25 27 29 33 46 45 53 51 53 45 52 53 53 52 57 60 60 57 58 58 68 85 94 93 95 98 98 97 99 94 87 69 62 36 29
38 37 36 36 32 31 29 25 28 30 30 35 38 44 42 45 50 39 49 53 53 55 63 65 61 52 60 57 60 77 91 97 98 98 95 96 98 95 90 77 57 38 30
46 44 41 43 35 34 29 29 26 28 33 34 40 37 36 42 41 38 46 51 51 55 64 65 60 53 56 55 56 70 82 94 96 96 94 96 96 95 92 79 52 41 34

GFSSE_prec_cthk_111.txt.gz
RH
15 16 18 18 21 25 24 23 22 19 17 16 18 20 21 22 22 22 24 26 27 28 31 30 33 37 42 48 51 54 57 62 65 66 67 67 70 71 73 74 74 72 75
17 18 20 20 24 26 25 25 22 20 19 17 17 18 19 21 22 22 24 27 28 28 29 31 35 42 51 52 52 57 61 60 68 62 64 70 70 70 68 67 69 65 72
20 20 21 22 27 28 27 26 23 22 21 20 18 17 19 20 22 22 23 25 27 28 30 34 37 45 49 52 53 57 59 62 63 60 61 66 65 64 62 63 65 66 71
23 24 26 27 30 30 28 26 24 21 21 20 20 19 19 21 22 22 22 24 26 27 32 36 40 47 50 50 52 56 58 58 58 57 57 57 59 60 58 66 68 70 70
24 23 25 29 31 31 29 26 22 21 22 22 21 20 19 20 21 22 22 23 25 30 34 38 42 47 47 48 53 55 56 57 56 55 50 53 58 62 61 63 66 69 69
25 25 28 30 30 29 27 25 25 23 23 23 21 20 20 20 21 22 24 24 27 33 35 41 44 48 46 50 53 53 55 56 58 56 54 52 55 57 68 68 66 68 69
26 25 27 30 30 28 26 26 26 25 24 23 22 22 21 22 22 23 24 26 31 33 40 45 47 49 51 52 52 53 53 54 56 55 50 50 54 58 67 70 72 76 70
26 27 29 30 29 27 27 27 27 26 25 25 24 24 23 24 24 25 27 29 31 35 42 47 48 49 50 50 49 49 51 57 59 57 50 49 57 63 63 65 72 78 73
29 30 31 30 29 29 29 28 27 26 26 27 27 26 24 25 26 27 29 31 33 36 45 49 49 50 51 49 48 49 54 58 63 58 50 48 56 61 66 67 73 77 66
35 34 35 30 30 31 32 30 28 27 27 28 29 29 26 26 27 28 30 31 33 35 39 43 50 52 52 50 51 53 57 57 65 65 55 49 60 81 72 74 76 75 67
42 37 37 32 35 34 32 32 31 29 29 29 31 32 28 27 27 29 29 31 32 35 37 40 47 52 51 51 53 54 59 58 62 70 64 55 59 77 82 77 79 76 69
49 45 39 36 37 36 34 34 33 31 32 31 31 33 32 28 27 28 30 31 34 36 39 40 43 47 49 50 53 54 58 59 62 76 76 70 63 76 89 79 81 78 68
51 50 40 40 36 37 36 37 37 35 32 32 33 34 34 33 29 29 31 32 34 38 40 39 41 43 44 47 49 53 58 62 64 76 79 79 73 72 90 83 82 83 75
57 55 47 45 44 39 40 41 41 39 36 34 34 34 35 34 33 30 32 32 33 35 39 40 40 42 40 42 45 50 55 60 69 75 81 85 86 81 87 90 87 85 76
50 57 57 51 48 45 42 43 43 43 42 39 38 35 35 35 34 33 32 34 35 35 39 41 41 42 41 42 43 44 50 57 60 69 75 79 88 92 91 93 86 87 73
39 50 52 58 52 49 50 44 44 48 48 42 40 37 37 39 37 34 34 34 37 37 38 42 42 44 44 46 50 48 51 55 56 60 64 70 86 90 95 98 90 86 78
37 39 40 45 48 50 59 54 54 54 53 48 47 40 35 36 38 38 34 37 36 40 38 42 44 45 47 49 52 54 55 54 56 63 63 66 80 83 97 98 96 88 74
32 36 38 40 42 45 53 68 65 53 51 55 53 47 39 36 36 38 38 38 39 39 42 42 44 46 48 50 54 56 57 52 51 59 67 70 77 87 93 93 96 91 71
25 30 32 33 33 34 40 47 59 54 49 51 50 49 42 42 39 38 40 39 42 41 42 42 44 46 49 51 55 60 58 50 52 59 60 74 81 88 91 91 98 93 76
10 19 25 28 27 29 31 32 37 44 47 52 48 46 46 48 45 40 41 41 41 44 43 43 43 49 50 54 56 61 56 52 53 53 62 75 90 91 96 97 98 97 75
10 11 12 20 23 23 24 25 27 29 35 46 48 48 50 49 53 46 42 43 41 43 45 45 45 48 52 56 61 62 61 54 50 57 69 85 91 93 98 95 97 99 78
10 11 11 10 15 20 21 24 23 26 28 36 47 48 49 47 51 53 47 42 47 47 46 47 46 50 56 57 59 65 65 58 51 57 69 84 94 96 96 98 95 98 83
15 14 13 12 11 15 18 22 25 28 33 31 38 49 47 46 47 55 54 52 51 51 48 47 51 56 58 58 62 66 69 59 53 55 58 80 94 95 95 96 98 95 97
24 20 19 18 16 15 17 19 25 24 30 32 30 36 45 46 48 49 48 60 63 59 56 53 58 61 61 60 63 65 72 66 55 53 55 67 93 92 92 95 98 98 98
37 29 24 22 22 18 20 21 23 25 23 30 31 35 45 45 46 46 45 59 65 63 65 67 67 65 61 60 61 64 72 70 57 53 56 56 75 92 95 97 97 97 97
57 48 39 31 28 23 22 22 24 24 27 30 31 35 41 43 47 50 47 51 68 55 58 56 63 62 62 63 60 64 70 72 55 56 60 57 68 84 92 94 98 99 98

GFSSE_prec_cthk_114.txt.gz
RH
20 18 18 20 22 26 26 25 25 25 25 27 27 26 26 24 23 23 22 23 23 24 27 29 31 35 41 44 46 50 53 59 63 65 66 69 68 71 72 73 74 69 76
24 19 20 22 22 28 28 27 27 26 26 26 26 27 25 24 23 22 23 24 25 25 27 28 33 37 43 47 48 52 58 58 60 63 61 68 68 69 70 69 69 69 74
24 22 23 24 24 30 30 29 28 25 24 26 26 26 25 24 24 23 23 25 26 25 27 31 34 42 46 48 49 54 59 60 62 60 61 69 68 65 65 65 65 68 72
26 24 26 27 28 32 32 29 26 24 24 24 26 27 25 25 24 24 25 25 26 26 28 32 36 47 47 49 50 53 57 58 58 60 67 68 64 60 61 65 69 70 71
30 27 25 25 29 33 32 29 25 24 24 25 26 25 25 25 25 25 25 26 27 27 31 33 38 44 48 47 51 51 53 55 56 57 60 60 58 59 62 63 65 71 71
34 31 27 27 31 33 31 29 26 25 26 27 26 26 26 26 26 26 26 27 28 30 32 35 40 46 47 47 48 49 50 51 56 66 57 56 59 55 62 69 66 63 69
33 33 28 30 33 33 32 28 27 27 28 27 27 26 26 26 27 27 27 28 30 33 34 39 41 46 50 47 48 47 48 50 59 60 57 53 52 58 66 71 73 69 68
35 34 29 31 34 34 31 29 28 28 29 29 29 28 27 26 27 29 28 29 32 33 37 42 45 45 48 48 47 45 45 46 58 63 57 55 54 60 68 70 69 73 71
32 33 33 33 35 35 32 30 29 28 29 30 30 30 30 28 28 29 30 30 34 36 40 47 49 47 48 48 46 43 44 50 64 71 61 55 51 61 67 65 69 75 74
37 36 36 37 36 35 34 33 31 30 30 30 31 33 32 29 29 31 31 33 34 36 40 46 50 50 51 49 48 46 48 52 63 71 73 64 50 63 69 69 75 74 72
38 42 37 40 40 36 38 35 34 32 31 32 32 34 34 34 32 32 32 33 35 37 39 41 46 52 53 50 49 50 50 58 65 67 74 71 59 63 89 82 80 78 74
43 45 43 42 43 38 42 40 36 35 34 35 33 33 36 40 39 39 35 34 36 38 39 41 44 49 51 51 50 52 54 62 62 63 70 76 69 64 78 88 80 78 77
45 50 49 47 48 42 45 42 41 42 41 37 36 36 37 41 40 39 42 39 40 37 38 40 41 45 51 56 55 54 56 60 64 67 68 71 75 73 81 88 84 81 80
42 54 59 57 52 47 42 43 39 43 39 37 37 39 40 38 40 40 41 41 40 41 40 37 41 45 50 52 52 54 53 60 61 63 73 68 77 83 77 84 87 81 81
35 45 56 60 58 52 49 43 41 40 46 41 40 39 40 37 36 37 39 42 44 44 45 41 40 41 46 50 49 51 54 55 58 64 62 66 72 79 90 90 93 91 86
31 37 42 55 63 56 50 47 44 42 44 42 42 42 41 42 39 36 39 40 44 42 43 46 43 41 43 47 49 51 55 55 63 66 61 62 59 68 78 84 89 98 91
28 33 37 45 54 48 47 49 45 43 43 44 44 45 44 45 49 41 36 40 42 43 41 44 47 44 42 45 49 56 56 61 63 61 58 59 60 55 65 83 97 96 96
25 29 34 38 46 49 44 46 52 53 47 45 47 50 46 47 49 48 39 36 42 44 43 42 44 46 44 42 46 51 56 61 62 59 57 54 58 61 68 78 92 98 96
13 21 28 31 33 40 49 54 52 57 66 61 60 56 52 53 48 48 46 41 41 43 43 47 45 45 49 44 44 48 55 59 62 60 54 53 61 57 70 81 90 96 97
11 10 11 23 29 33 40 48 53 54 59 69 67 54 49 46 46 47 52 50 43 45 46 46 47 48 50 49 47 50 52 59 67 54 48 51 61 63 73 89 94 97 94
15 13 10 9 19 26 32 38 44 48 53 55 58 53 45 44 46 50 54 51 44 42 44 45 48 51 52 53 52 51 52 52 59 60 53 52 56 67 82 89 93 93 94
20 19 17 15 13 17 26 28 35 39 40 47 51 56 55 50 46 49 51 53 45 42 45 45 46 50 53 53 54 58 55 55 58 64 58 53 54 65 84 92 92 97 98
25 22 19 17 17 15 16 21 25 36 41 38 40 40 44 42 40 44 45 47 51 48 49 50 50 51 53 54 60 63 62 55 58 67 62 54 54 61 76 91 92 97 97
31 28 24 20 17 17 19 21 22 28 31 31 34 34 32 34 37 38 45 46 49 54 55 50 52 55 57 53 64 65 65 62 59 66 66 53 50 52 63 90 93 96 97
38 35 29 26 22 22 24 24 23 20 24 30 29 31 33 31 34 38 45 50 48 51 55 55 58 58 57 59 63 68 69 66 61 62 68 60 50 52 51 72 89 94 95
48 45 41 34 32 30 27 28 29 26 24 30 29 27 30 33 26 32 44 51 49 47 49 54 65 68 69 70 73 73 68 68 60 62 70 63 55 57 51 53 80 90 93

GFSSE_prec_cthk_117.txt.gz
RH
27 23 20 20 20 25 27 28 26 24 24 26 28 29 28 26 23 23 22 23 25 25 28 29 30 33 40 45 46 50 52 58 61 63 62 63 66 65 71 72 78 72 74
22 23 21 19 21 24 28 29 28 26 25 28 29 29 29 26 25 25 24 25 26 28 29 29 33 36 40 44 48 51 55 59 59 59 59 62 68 69 71 71 72 72 73
22 25 22 20 22 23 29 29 28 24 24 26 29 30 29 26 27 26 27 27 28 28 29 31 33 37 44 48 49 52 57 59 59 60 62 69 68 64 64 66 70 68 72
27 29 25 23 23 24 29 28 27 23 23 26 28 29 28 27 26 26 27 28 30 29 30 34 35 42 45 46 49 53 55 56 55 57 66 73 71 63 63 67 69 70 71
32 33 29 26 24 25 30 27 25 22 23 25 27 28 29 27 27 27 28 28 29 30 32 36 38 43 46 48 48 49 52 52 52 54 65 65 66 57 58 63 76 78 73
36 36 31 27 25 26 29 27 25 23 23 24 27 28 28 28 28 28 28 29 31 31 35 37 41 43 46 45 46 48 48 48 47 64 79 61 63 57 58 63 71 68 72
38 38 35 30 27 30 31 29 26 24 24 25 27 28 27 27 28 29 29 30 32 34 36 39 44 45 45 46 43 45 46 45 56 78 56 64 63 58 58 73 73 71 66
41 39 36 33 30 34 35 33 28 26 26 27 28 28 29 29 29 29 30 32 33 35 37 41 46 48 47 46 43 43 42 42 52 66 61 64 62 58 60 72 77 77 70
38 40 39 33 33 36 38 37 33 29 27 28 28 29 30 30 31 31 31 33 35 36 38 43 48 49 49 46 44 42 40 40 62 68 57 65 59 57 65 69 69 73 74
36 41 42 35 35 37 41 38 36 33 29 28 29 30 31 32 32 31 33 34 36 37 39 44 51 52 50 49 46 43 42 44 53 70 59 67 62 56 65 69 66 70 75
31 40 45 38 40 44 44 40 38 37 34 32 31 33 34 35 34 35 33 34 37 38 38 41 45 47 51 51 47 45 47 49 58 68 66 63 68 66 71 82 72 80 71
35 38 44 44 42 50 52 46 43 41 37 33 32 33 36 37 39 40 39 35 38 42 48 43 42 43 47 50 48 46 48 57 62 67 69 66 64 68 75 77 86 86 76
33 43 46 51 47 47 55 55 48 47 46 39 36 36 38 42 44 41 45 41 41 41 43 42 40 41 44 51 52 48 50 56 60 65 66 69 68 75 76 80 86 89 83
30 45 48 53 57 51 53 53 54 56 52 50 42 40 40 45 48 47 45 44 40 41 40 40 40 38 43 49 49 50 51 55 59 64 59 65 68 74 76 81 95 92 89
28 33 53 55 59 58 56 56 48 50 47 51 52 45 44 46 49 53 50 46 43 45 44 44 42 44 43 45 48 44 48 54 57 58 61 61 57 65 69 79 88 91 91
25 29 33 49 62 66 65 59 53 47 52 46 45 46 48 53 48 53 55 57 52 44 42 45 46 44 45 44 46 43 43 47 54 59 69 66 57 61 61 61 81 88 88
21 25 30 35 41 64 76 73 60 54 54 51 47 47 43 49 49 48 51 59 60 57 43 43 47 45 49 48 47 45 45 50 53 58 64 62 61 57 58 60 60 79 91
17 21 25 29 35 44 60 71 72 61 60 53 54 48 42 44 51 51 49 50 60 61 54 45 46 47 45 49 49 47 43 45 49 53 59 57 62 60 53 52 59 68 80
15 18 23 26 30 35 47 59 70 63 61 63 56 52 47 43 47 54 52 48 51 58 58 51 48 44 47 48 49 49 47 47 49 52 57 53 54 63 62 59 60 68 79
23 22 21 22 28 30 32 43 59 71 62 62 64 57 53 48 48 57 61 56 49 49 54 57 49 49 51 52 50 51 51 50 52 53 56 57 53 50 55 69 68 74 90
25 21 19 22 20 19 24 27 38 56 64 64 61 64 66 58 57 66 61 61 50 47 47 54 53 53 49 55 55 53 53 53 52 53 56 61 60 58 52 60 67 77 85
32 28 25 20 18 20 21 24 27 34 50 54 63 60 69 72 65 65 59 56 51 51 54 56 54 53 54 50 55 58 57 55 55 58 57 59 63 64 53 56 64 78 92
35 35 31 29 23 20 20 20 21 22 30 43 44 53 55 62 64 62 54 51 52 49 50 59 59 56 55 52 52 55 57 53 64 60 62 63 64 64 58 50 54 73 92
37 37 38 35 33 27 23 22 23 24 24 28 38 40 48 52 55 56 63 62 50 48 50 51 62 58 62 60 56 53 55 58 66 69 67 65 67 63 60 49 46 58 83
38 38 39 38 36 34 29 25 23 23 24 24 32 44 35 40 49 44 50 61 52 47 48 49 57 64 62 61 60 58 59 59 65 70 71 71 68 65 62 51 50 46 61
46 44 38 39 40 38 35 31 27 26 25 23 25 37 45 41 42 41 41 44 50 47 49 51 53 59 65 69 66 60 60 60 67 72 73 71 68 67 64 61 52 48 45

GFSSE_prec_cthk_123.txt.gz
RH
38 40 27 19 15 15 17 19 21 20 19 20 22 26 26 23 17 18 17 19 21 24 26 25 25 30 34 37 42 48 51 52 57 60 58 60 62 64 69 71 71 67 69
32 29 26 22 16 16 19 21 24 21 19 20 23 26 28 25 20 20 18 19 20 25 27 26 28 32 35 40 43 49 54 56 57 57 60 60 62 66 72 70 66 67 68
32 29 23 22 20 17 20 23 25 23 20 20 22 26 28 26 23 22 21 21 22 24 26 27 30 35 37 41 47 52 56 59 57 58 60 59 64 66 69 68 67 65 70
29 30 27 26 23 20 20 24 25 24 21 21 23 26 28 27 25 24 24 24 25 24 24 27 30 34 40 45 48 52 56 58 55 55 59 64 67 65 67 69 69 70 71
19 26 32 33 27 24 23 25 26 25 22 21 23 26 28 27 27 26 25 27 27 26 26 27 30 37 40 43 47 50 53 53 52 58 64 65 62 64 68 65 69 74 73
20 25 32 32 31 28 25 27 27 26 23 23 24 25 27 26 26 27 28 29 28 28 28 30 33 36 39 42 46 48 52 50 52 57 69 67 60 68 66 66 67 71 72
22 29 33 31 31 30 27 28 30 28 25 24 24 25 26 26 27 27 28 29 31 32 32 32 35 36 37 39 44 47 48 47 52 80 70 58 56 68 63 64 64 67 70
23 28 33 37 33 32 30 28 30 29 26 25 26 27 27 27 27 28 28 29 31 35 36 36 35 35 37 39 43 44 45 50 58 65 68 58 55 68 68 62 70 78 81
22 24 31 38 40 36 34 31 32 31 28 27 27 27 27 27 28 29 30 31 30 33 38 40 41 40 37 39 44 44 43 48 48 67 85 68 53 59 66 70 73 75 79
27 25 26 32 40 40 38 34 34 33 33 30 27 27 26 27 28 29 30 31 32 35 38 41 40 43 42 38 42 44 42 44 50 63 76 70 62 55 59 67 76 74 70
28 26 26 29 36 42 40 39 37 37 36 33 30 28 27 27 27 27 29 33 34 36 37 40 39 41 46 43 41 43 40 40 47 53 59 58 61 60 58 67 70 74 73
28 27 29 35 40 44 44 42 41 41 40 38 34 31 28 27 27 28 29 32 34 37 38 38 40 43 44 46 48 44 40 42 47 49 49 54 61 57 54 64 73 78 81
31 29 30 36 45 45 49 47 47 43 43 42 39 35 32 30 30 30 30 31 34 35 39 38 39 39 41 43 48 49 44 40 44 46 47 47 50 57 64 60 66 77 82
29 28 29 32 45 51 52 59 54 50 49 47 45 41 37 33 32 32 32 31 33 36 37 38 38 38 35 37 42 49 45 44 43 46 47 51 58 64 59 59 61 65 81
25 28 30 28 30 41 54 63 72 64 61 59 55 48 44 39 36 35 34 34 34 37 40 40 39 39 36 35 37 51 60 50 43 44 45 50 48 57 54 52 50 56 59
22 25 29 32 37 40 45 68 73 78 76 74 67 58 51 43 39 39 39 37 36 42 40 41 41 42 37 33 34 42 50 52 46 45 49 50 50 51 54 53 53 54 54
20 23 26 28 26 29 34 45 64 77 83 89 89 72 58 50 43 42 43 42 40 41 43 43 43 44 45 45 34 39 48 51 51 46 47 49 49 50 52 50 50 55 53
19 22 22 24 26 23 22 28 37 56 70 83 95 89 76 64 56 49 47 46 45 51 45 47 44 43 44 47 46 37 49 51 51 48 43 42 44 49 52 51 48 44 43
22 25 26 24 26 27 22 23 27 34 51 75 80 89 88 91 80 66 55 52 52 54 48 52 49 47 44 45 45 45 44 51 49 48 47 45 46 47 49 51 51 52 49
26 28 29 27 24 24 23 22 23 28 37 50 73 78 89 88 85 87 66 60 63 61 51 53 53 52 49 45 44 45 49 49 51 49 51 50 48 48 48 50 53 54 55
29 29 28 29 28 26 23 20 19 20 26 37 43 62 75 78 85 90 69 70 73 72 56 52 53 53 52 52 48 50 52 51 53 52 52 53 51 48 50 50 55 56 58
32 34 32 29 26 27 28 24 22 19 18 24 35 43 57 64 71 66 74 84 78 72 64 58 51 52 53 56 50 50 55 58 53 54 55 54 55 55 52 54 58 58 59
39 38 37 35 33 31 31 30 27 25 22 19 23 31 41 52 63 74 79 89 74 79 61 62 55 53 56 57 53 49 53 51 53 54 60 59 56 57 56 59 63 62 62
43 43 41 39 39 36 34 33 33 30 27 23 20 24 29 40 48 57 71 74 71 89 70 61 58 53 61 58 58 49 46 42 49 53 59 61 56 54 58 63 66 67 66
52 48 45 41 38 38 38 38 37 35 34 30 25 20 24 32 39 44 54 62 82 86 85 78 65 57 66 68 56 46 51 48 49 51 52 58 64 58 65 70 68 67 70
50 45 42 39 38 39 38 39 40 40 37 35 32 26 21 22 35 40 41 51 60 78 83 76 82 76 72 85 68 53 50 50 47 53 54 56 59 59 64 68 66 66 71

GFSSE_prec_cthk_126.txt.gz
RH
34 35 34 26 21 18 19 20 21 22 20 20 22 24 25 23 18 17 18 19 20 23 26 25 26 30 38 40 43 46 50 53 54 57 59 59 57 58 60 66 70 67 70
30 31 32 31 24 19 19 21 23 24 21 20 23 25 26 25 20 21 20 21 21 24 26 25 28 33 37 41 47 48 51 52 55 54 54 54 55 62 65 68 68 69 70
29 31 30 27 24 19 18 21 24 25 24 22 22 25 27 26 23 22 22 23 24 26 28 27 29 35 40 42 48 52 51 52 53 51 54 55 60 64 66 64 66 71 73
28 29 31 28 24 22 19 20 23 25 24 23 23 25 27 27 25 25 24 25 26 28 28 29 31 39 42 44 47 50 52 53 50 54 56 61 67 67 65 65 69 74 74
20 21 28 34 29 27 23 22 23 25 25 24 23 26 28 28 26 25 25 27 28 28 29 31 32 38 44 44 48 49 50 48 48 52 61 64 65 62 65 66 69 79 76
19 24 29 35 35 33 27 24 25 25 25 24 24 26 27 27 26 25 24 26 28 29 30 32 35 43 40 42 44 45 47 48 46 51 58 63 61 62 63 61 67 73 80
21 23 28 33 37 37 33 28 28 27 26 25 25 24 25 26 25 25 24 24 26 28 31 34 40 42 42 42 43 43 44 45 45 65 71 68 55 62 63 64 65 78 68
22 22 23 26 37 39 37 33 30 30 28 26 25 24 24 25 25 25 24 24 24 28 31 34 38 40 41 41 42 44 43 44 49 61 57 62 59 69 64 65 64 72 77
26 25 24 22 29 42 42 38 35 33 30 29 27 26 25 25 24 25 25 25 25 26 30 35 39 41 41 41 43 44 45 45 47 46 59 69 62 65 64 63 67 71 76
28 27 26 23 24 33 45 44 40 37 34 32 32 30 26 26 25 25 25 25 25 27 30 34 39 41 41 40 41 42 44 45 43 52 56 55 52 57 60 62 72 72 71
27 28 30 30 30 30 39 46 43 41 38 36 35 34 32 28 27 26 25 26 26 27 29 34 36 40 43 43 43 41 42 45 46 49 47 48 46 59 55 57 64 69 69
32 29 32 36 35 35 36 45 47 42 41 40 39 39 35 32 29 27 27 28 28 30 32 34 35 38 43 46 44 43 42 41 46 48 49 49 46 51 48 54 65 66 72
31 31 31 37 40 41 42 42 50 47 44 44 43 40 38 35 33 30 28 28 30 32 33 35 36 38 41 42 44 46 42 38 44 49 47 51 48 56 57 57 59 69 77
23 29 35 45 51 49 45 50 52 56 50 47 47 44 42 40 36 34 30 30 29 31 34 36 36 38 37 40 40 44 43 37 40 46 52 52 49 59 67 65 57 60 63
17 25 32 32 35 42 49 54 65 70 68 62 62 58 54 49 45 41 37 35 33 32 33 35 38 39 42 38 39 41 43 43 42 44 49 51 55 52 57 60 52 52 53
16 19 25 27 26 30 34 39 52 63 73 85 82 75 75 69 60 50 43 41 38 36 34 35 39 41 43 44 42 38 42 43 45 44 48 53 51 48 56 55 50 51 52
19 19 20 23 26 27 29 31 37 54 62 71 88 86 77 90 81 66 53 48 41 38 36 39 40 44 45 45 44 44 43 40 38 39 41 47 50 49 49 52 49 50 49
22 20 21 22 23 26 27 24 26 31 45 62 74 86 93 94 97 90 72 56 49 48 44 44 45 44 44 46 45 43 48 47 43 35 34 40 45 46 47 48 50 48 47
27 27 25 21 21 21 24 26 24 23 27 35 51 69 85 90 88 92 86 71 63 62 56 51 46 46 43 45 47 44 46 49 48 46 36 32 40 44 44 46 47 49 49
33 32 29 26 22 23 22 22 24 22 21 24 31 43 63 82 93 95 98 87 85 68 62 63 54 53 51 49 49 47 44 45 49 50 46 39 35 43 48 47 49 51 52
33 33 31 29 27 25 24 24 21 23 18 16 18 26 39 55 77 85 94 96 88 80 73 77 65 57 60 65 60 55 52 51 47 52 52 48 42 40 44 50 49 52 55
37 37 34 33 31 29 27 26 26 23 23 18 15 14 20 40 51 73 88 92 93 84 85 86 77 72 67 76 73 66 61 59 48 46 51 51 49 46 39 47 50 53 55
41 39 38 38 37 35 34 31 29 31 27 25 20 17 14 17 39 52 69 83 98 94 88 89 84 77 79 81 83 80 70 60 50 44 45 51 53 52 49 43 50 54 57
45 44 43 45 46 43 40 39 38 37 33 29 27 23 19 15 17 39 52 61 76 83 91 95 76 73 77 81 83 85 85 65 52 46 43 44 50 54 56 52 47 50 56
52 51 52 53 53 54 53 47 42 37 35 33 30 28 25 21 18 20 39 50 58 68 77 81 81 70 78 72 78 82 84 82 64 47 39 42 47 51 55 57 53 53 59
57 55 51 49 46 45 43 42 40 38 36 36 35 33 28 25 22 19 24 37 42 58 64 67 72 82 82 90 79 81 79 84 76 51 40 44 41 44 51 58 54 60 60

GFSSE_prec_cthk_132.txt.gz
RH
31 30 32 28 24 27 27 27 26 26 23 22 22 20 19 17 16 18 20 20 20 20 21 22 22 24 28 31 36 40 43 46 48 47 49 48 46 49 53 57 58 57 62
35 35 34 30 26 25 26 27 27 28 27 25 25 24 22 19 17 17 19 20 20 22 24 25 24 26 30 32 34 38 41 44 44 47 49 47 49 55 58 59 59 62 65
31 33 33 34 31 30 28 26 25 26 28 29 28 27 25 22 20 19 20 21 22 24 24 26 26 29 31 34 36 40 43 44 44 45 45 48 55 57 61 60 60 63 66
28 29 30 33 36 36 32 29 27 26 26 28 30 31 31 25 23 21 21 22 23 25 26 26 26 28 31 34 38 42 43 44 44 44 45 51 57 61 63 63 62 66 68
29 30 31 32 35 36 35 33 31 28 27 27 30 31 34 32 26 23 23 24 25 26 28 28 28 28 31 36 39 39 40 42 44 45 46 53 55 62 63 59 64 68 71
29 32 33 33 33 35 36 37 36 31 29 29 30 30 33 35 30 26 24 24 25 27 29 29 29 29 32 37 39 39 40 43 43 44 47 55 55 59 58 61 63 68 69
32 34 35 36 37 37 40 45 44 39 34 33 33 32 32 35 34 29 26 25 26 28 29 29 30 31 34 37 39 39 40 43 43 42 46 53 55 58 61 62 62 68 72
33 35 35 37 38 36 36 40 48 45 39 36 37 35 34 35 36 32 29 27 27 29 31 29 30 33 36 37 39 38 40 43 44 43 48 52 51 56 61 65 63 68 76
33 35 36 36 37 38 41 42 47 50 45 40 40 39 39 37 39 37 35 31 29 29 30 31 32 35 38 40 39 38 40 41 42 48 47 44 48 58 64 64 64 66 68
33 34 37 38 40 41 42 46 51 58 55 46 44 44 43 42 42 43 38 37 34 32 31 32 32 35 40 42 40 39 39 42 43 49 43 45 48 51 57 62 64 63 65
32 33 35 38 41 44 45 46 47 52 62 60 51 48 47 44 44 46 44 39 37 35 34 34 33 35 39 42 40 41 42 43 43 46 47 46 43 45 50 61 63 67 67
31 31 33 37 38 39 44 52 51 52 55 64 63 59 54 51 49 49 50 47 42 39 38 37 38 38 40 42 41 42 43 43 43 45 52 52 44 40 42 54 56 69 69
22 23 27 27 28 34 33 38 48 57 60 61 67 69 70 65 58 55 54 51 47 44 41 41 39 39 40 42 43 44 45 44 43 44 47 53 48 41 42 49 51 61 72
21 21 23 23 24 24 25 27 35 48 56 63 66 75 71 72 71 68 60 55 51 48 45 44 45 43 44 45 45 44 46 45 43 45 45 45 48 47 47 47 50 58 65
22 23 24 23 23 23 23 26 29 33 42 50 65 73 85 83 80 77 70 66 63 57 52 48 49 48 47 48 47 46 48 47 46 45 45 47 50 51 54 53 61 62 61
24 25 25 25 25 25 24 24 25 27 25 31 39 49 61 90 90 89 86 80 71 69 60 55 50 52 53 52 51 50 48 49 48 47 45 46 47 47 50 58 63 62 62
25 26 27 27 26 25 25 25 24 24 25 22 21 27 38 50 66 88 97 93 90 84 74 67 63 59 58 57 54 54 51 49 48 48 49 46 45 46 47 51 51 59 55
28 28 28 27 27 26 26 26 25 24 24 24 24 21 22 31 42 50 63 69 91 92 97 83 65 70 65 66 58 59 57 53 49 48 49 49 48 44 46 45 45 48 44
32 32 31 29 28 27 26 26 26 26 25 25 24 24 23 20 24 32 40 44 58 75 91 99 90 72 69 74 66 63 62 59 57 50 48 48 48 48 45 46 43 42 42
33 33 32 32 29 27 25 25 24 23 24 25 25 24 22 21 20 17 23 27 33 45 52 71 94 90 79 77 72 71 68 60 62 57 52 49 47 50 48 48 46 41 38
34 33 32 31 30 29 28 26 26 26 27 25 23 23 25 24 23 22 19 21 24 25 37 47 62 88 74 85 88 80 79 68 62 61 56 57 52 49 48 48 51 49 46
34 33 33 33 33 32 31 31 31 30 29 30 29 27 27 25 25 24 25 23 21 22 25 33 42 71 83 87 96 92 87 84 73 63 54 54 54 55 51 48 50 51 51
35 35 36 36 37 37 36 35 36 35 34 34 35 33 31 30 30 28 27 27 27 27 23 28 36 46 70 93 91 94 94 88 76 72 59 55 56 56 53 53 51 52 54
39 40 41 41 42 43 43 43 43 42 41 39 36 33 32 33 33 33 31 30 30 29 29 26 32 38 48 65 87 97 96 98 82 78 67 60 62 57 50 49 53 54 56
43 42 45 46 46 45 45 45 44 44 42 37 36 36 34 33 32 32 32 32 31 30 30 28 31 36 42 51 83 97 93 92 99 93 83 75 72 67 62 61 53 53 56
44 42 44 45 45 44 44 44 45 44 45 43 42 42 41 40 39 37 37 36 33 31 30 30 31 36 44 44 72 88 90 90 85 98 91 85 80 72 69 69 67 60 56

GFSSE_prec_cthk_138.txt.gz
RH
38 34 36 34 32 31 31 32 33 32 30 29 27 26 23 25 25 21 20 20 19 20 21 23 24 25 28 30 32 36 39 42 44 46 47 48 49 50 55 58 60 65 63
40 37 38 39 36 33 31 32 35 37 35 33 31 30 28 24 24 24 21 19 18 20 21 22 24 23 26 29 33 35 38 42 43 44 46 49 49 54 56 59 63 64 64
38 40 42 43 43 39 39 37 38 38 38 38 36 34 33 30 26 26 24 20 20 20 22 23 24 24 26 26 31 36 40 42 42 44 46 50 54 56 59 61 62 65 67
35 37 39 40 41 41 41 42 42 42 40 40 40 37 37 35 32 28 26 24 22 22 23 24 25 25 26 29 31 36 40 41 43 45 49 51 56 57 61 63 63 65 70
37 39 39 41 42 42 42 42 42 41 40 39 40 41 39 39 38 34 30 28 25 25 25 26 26 26 26 28 33 36 39 41 44 47 58 57 63 61 64 66 63 67 76
39 41 40 41 41 42 41 41 41 44 43 42 41 41 41 47 42 40 35 33 30 27 27 28 29 29 27 28 33 38 40 42 44 54 59 55 61 64 65 67 63 69 73
41 41 41 42 42 41 41 42 42 42 44 44 44 43 42 42 44 48 42 38 34 30 29 29 30 30 29 29 33 39 41 44 46 54 54 56 58 60 61 66 65 67 67
33 36 40 39 38 38 38 38 40 43 46 47 47 47 45 46 45 45 49 46 40 38 37 35 33 33 32 32 35 38 41 43 45 53 54 56 62 54 58 66 68 68 69
35 36 37 37 38 39 41 41 41 43 47 52 53 54 53 49 49 47 49 51 49 42 42 43 40 36 35 36 38 40 41 41 46 52 53 57 52 48 55 59 68 67 67
35 37 39 40 40 42 43 42 44 47 48 52 59 61 60 62 60 56 48 52 51 45 46 45 41 38 37 38 41 43 43 42 44 55 53 61 52 47 46 55 63 67 69
36 36 36 38 40 44 44 44 46 47 47 51 57 63 64 64 69 74 58 53 55 50 49 50 48 46 40 39 41 44 46 47 49 53 58 58 51 48 45 50 57 62 69
31 32 33 35 37 38 37 33 37 40 41 42 49 60 63 62 66 74 77 68 61 58 61 60 55 54 53 47 43 43 46 51 55 55 55 54 50 51 48 46 49 58 67
26 25 25 25 24 24 24 23 25 27 27 30 37 43 50 58 64 66 72 77 78 72 69 68 65 58 57 55 52 54 53 53 56 57 56 48 50 52 52 47 46 48 59
24 23 24 25 26 26 25 25 25 23 23 22 23 26 35 44 51 64 74 78 80 85 82 77 78 79 74 66 56 54 56 57 55 57 59 48 46 50 55 48 45 46 55
23 23 23 24 25 26 27 28 28 28 27 27 24 22 21 24 32 41 49 65 82 81 81 83 83 78 77 78 73 59 56 56 56 56 55 52 48 48 54 49 48 45 49
22 22 22 22 23 24 25 26 26 27 28 28 29 28 26 24 21 24 33 40 46 67 85 85 91 91 89 86 79 78 62 62 61 57 55 54 49 49 49 54 50 54 52
25 25 25 25 26 26 27 27 27 27 27 27 28 28 29 28 27 24 22 24 36 41 53 79 98 96 95 93 93 83 74 66 66 64 59 57 52 49 51 52 53 54 65
28 28 29 29 29 29 30 30 30 30 30 30 29 27 26 27 27 27 26 24 23 23 32 40 52 61 86 91 81 95 81 81 73 72 65 61 58 53 49 51 52 51 55
30 31 31 31 31 31 31 31 31 30 30 29 28 28 27 27 26 26 25 25 25 23 22 26 31 30 42 52 66 84 79 90 81 73 75 71 61 56 55 53 51 52 51
32 31 31 31 31 31 31 30 30 29 28 26 25 23 22 22 24 25 25 25 25 25 24 22 21 25 25 28 34 41 58 71 87 75 77 74 69 58 58 58 54 54 54
30 31 31 31 30 29 28 27 27 28 28 28 26 24 23 22 22 22 23 23 24 24 25 27 28 26 23 24 27 28 31 50 67 71 77 81 75 67 61 59 57 58 59
33 33 32 32 30 29 27 26 26 26 25 25 27 29 29 27 26 26 25 24 24 25 25 26 29 31 32 34 32 33 37 39 47 64 71 76 78 68 63 63 60 55 57
34 33 31 30 29 29 28 28 29 29 29 29 28 28 29 28 29 29 30 31 30 30 28 30 33 34 33 36 39 38 39 36 31 35 54 69 78 71 65 66 61 52 54
34 33 31 31 31 32 31 32 34 33 33 34 34 34 33 32 31 32 33 33 33 36 37 36 35 35 35 33 39 38 38 38 42 41 47 57 71 68 69 69 72 54 52
36 37 35 35 35 35 36 38 38 38 39 39 40 39 40 41 41 41 40 38 39 39 38 38 40 40 38 36 35 39 40 41 39 47 49 62 62 60 67 72 76 72 56
39 38 38 40 40 41 44 44 44 45 47 47 48 48 48 47 45 44 43 43 44 43 41 41 43 41 40 39 38 37 40 40 49 50 49 49 59 58 59 69 74 78 75

GFSSE_prec_cthk_141.txt.gz
RH
42 33 32 32 30 28 27 27 27 28 28 28 28 29 29 29 29 27 27 23 22 22 24 25 27 26 27 29 30 33 38 41 43 44 44 44 45 46 51 52 59 65 59
43 36 38 38 37 34 33 32 32 33 33 31 31 29 30 31 28 27 28 25 24 24 26 26 27 26 26 28 29 32 35 39 42 42 44 45 46 49 54 57 66 64 63
45 40 42 43 44 42 41 39 38 38 38 38 35 33 31 32 31 29 28 26 25 25 26 27 27 26 26 28 29 33 37 40 41 42 44 54 50 52 57 59 63 66 64
47 47 42 41 43 43 42 42 41 42 42 42 41 38 36 35 34 32 30 29 27 25 27 28 29 28 29 29 30 34 38 41 42 44 47 54 55 53 58 60 65 64 66
50 44 40 40 40 41 41 42 42 42 43 43 43 41 40 39 38 38 33 31 30 28 27 28 29 30 31 30 32 36 38 41 43 45 56 58 61 55 59 64 65 64 69
51 45 40 41 41 41 41 41 42 42 42 42 43 43 44 44 44 44 46 35 32 32 29 29 29 30 32 31 32 36 39 41 43 45 72 69 56 70 65 65 67 64 70
44 41 39 40 40 40 41 41 42 43 43 45 45 45 48 50 48 44 47 44 39 36 36 33 31 32 32 31 33 37 41 42 44 52 65 61 57 65 64 62 67 67 68
38 38 37 39 39 38 36 37 38 40 42 45 50 50 50 51 55 53 44 44 44 44 41 42 40 38 36 35 35 38 42 42 44 53 56 66 58 59 62 59 66 69 69
35 37 38 38 38 39 39 40 41 41 42 46 52 55 57 58 58 61 55 47 45 47 50 46 43 43 42 37 36 39 42 44 44 51 60 64 53 58 56 58 63 68 70
37 38 39 38 39 41 42 42 43 43 43 44 48 56 63 66 66 65 63 60 58 49 48 49 47 44 43 41 36 39 42 45 44 50 62 57 56 57 51 52 57 65 70
35 35 35 36 36 38 41 42 43 43 42 41 40 42 54 66 74 74 71 69 72 65 54 50 49 50 47 48 42 41 41 43 47 48 67 56 54 57 48 50 54 62 67
30 28 27 27 27 27 27 28 29 32 31 30 29 32 40 53 68 82 87 84 85 72 69 65 57 54 55 56 54 47 45 46 51 54 60 55 54 54 47 49 51 55 63
27 24 23 22 22 21 22 23 24 24 23 24 23 24 29 34 39 54 70 74 79 84 85 78 72 65 64 68 67 63 52 52 56 55 72 58 52 51 47 49 50 52 58
23 21 21 21 21 21 21 21 22 23 24 24 24 22 20 21 25 31 37 54 73 76 87 91 89 82 79 81 80 77 69 53 57 68 60 67 53 48 48 49 49 51 54
22 21 20 20 20 20 20 21 21 21 22 23 24 25 25 25 23 22 25 32 38 50 78 88 85 88 89 88 82 80 82 77 61 65 80 64 58 52 46 46 52 48 50
23 23 21 21 21 21 21 21 22 22 22 22 23 23 24 25 26 26 25 26 29 38 38 47 57 91 87 94 89 90 89 92 87 69 75 72 59 61 49 48 50 49 47
26 25 23 23 23 23 23 23 24 24 24 24 24 24 24 24 24 25 26 27 31 34 28 29 34 46 63 93 93 93 95 89 96 87 79 83 72 60 56 52 51 51 52
28 27 26 25 25 25 25 25 26 26 26 27 27 27 26 25 25 25 25 26 29 30 31 34 29 28 28 42 58 76 83 84 86 98 94 82 80 76 64 64 54 51 52
28 27 27 26 27 27 27 27 27 27 28 29 27 29 29 26 26 26 26 26 26 26 29 31 34 35 31 22 21 28 37 46 61 86 90 88 84 82 74 67 63 54 52
28 27 27 27 26 25 25 25 25 25 26 25 26 26 26 25 23 22 22 22 23 25 27 30 31 32 35 34 32 28 21 19 23 48 71 73 76 83 78 76 71 67 57
29 29 28 27 26 24 25 25 25 25 25 25 26 26 26 26 27 28 28 26 26 26 27 28 30 30 31 33 39 40 31 27 20 20 30 51 64 73 76 71 73 68 66
31 32 30 29 28 28 28 27 29 29 28 27 27 29 28 29 29 28 28 29 30 30 29 29 30 31 31 30 35 40 40 35 29 20 25 38 48 66 68 70 75 68 70
33 32 31 32 32 32 31 32 32 32 31 31 31 30 30 31 31 31 31 29 28 30 31 33 33 33 33 31 33 41 46 45 40 37 29 29 46 55 58 66 71 68 64
33 33 34 35 34 34 35 35 35 34 34 35 35 35 36 36 35 34 34 33 32 32 30 31 33 39 39 36 35 37 44 46 54 54 48 33 30 39 52 57 62 74 64
35 35 35 36 37 38 39 40 40 40 41 40 41 42 42 43 44 43 42 41 40 39 38 37 36 34 36 40 42 43 43 44 47 52 49 54 70 53 48 52 62 66 70
36 37 39 40 41 42 42 47 48 49 50 50 52 52 53 53 54 54 52 51 49 47 43 42 41 42 39 38 39 45 49 48 45 51 48 45 43 59 56 61 64 71 71

GFSSE_prec_cthk_144.txt.gz
RH
39 30 30 29 29 28 27 26 26 27 28 29 28 28 26 24 24 25 24 23 22 23 24 26 26 27 26 29 30 33 36 39 42 42 42 43 44 44 45 50 56 60 57
34 32 32 32 34 34 33 33 34 33 33 34 33 32 31 29 26 25 27 25 23 24 25 26 27 27 27 29 29 31 33 36 39 40 42 44 47 47 47 50 59 59 58
34 33 34 35 36 38 39 38 38 39 39 39 39 38 36 34 31 27 27 28 27 25 26 27 28 28 28 29 30 31 33 35 37 41 45 47 47 48 51 53 55 58 59
42 37 36 37 38 38 40 39 40 40 40 39 41 40 40 38 38 34 30 29 30 28 28 26 28 29 29 30 31 32 33 35 38 43 48 54 51 49 53 57 57 57 59
39 37 38 38 37 37 38 39 39 40 40 40 40 41 42 42 44 44 45 40 35 32 30 28 27 28 29 31 30 32 33 35 39 45 44 75 66 53 58 60 58 59 62
42 37 38 38 38 39 39 39 40 40 41 43 45 45 44 45 48 52 49 46 42 37 35 34 30 29 30 30 30 31 34 35 39 44 48 88 78 55 62 68 61 59 63
39 38 39 39 39 40 40 39 38 39 41 43 45 49 49 47 48 50 54 53 50 43 39 37 38 35 32 33 31 32 33 35 38 41 55 74 81 49 64 68 64 61 66
38 39 39 39 38 37 37 38 38 38 40 42 45 48 53 52 52 53 53 55 55 52 48 44 42 44 40 36 36 33 32 35 35 38 47 51 54 51 50 58 59 64 67
36 37 38 38 37 37 37 39 39 39 40 42 44 46 52 57 57 62 61 62 61 58 54 52 46 46 47 42 37 36 33 35 35 37 40 66 46 61 50 50 55 61 64
36 37 38 37 37 37 37 38 39 39 39 39 39 38 39 46 58 64 68 72 71 69 66 62 57 46 46 46 41 37 37 36 36 36 41 61 68 50 59 51 51 58 61
35 34 33 32 30 30 30 31 31 31 29 28 29 29 29 35 42 55 70 86 87 80 81 75 71 65 51 46 45 43 41 37 37 37 43 52 64 60 56 55 46 50 54
31 30 28 27 26 25 23 23 23 23 22 23 21 22 23 27 32 42 56 72 82 82 80 76 75 68 61 59 53 49 48 45 39 38 45 55 50 70 65 56 45 49 52
25 22 21 21 21 20 19 19 19 20 20 20 20 19 19 20 21 25 30 40 61 78 81 82 77 72 79 73 65 58 59 62 52 42 44 48 65 82 62 50 46 49 49
23 21 19 19 19 18 18 18 18 18 19 19 19 19 19 19 20 19 18 22 28 38 57 77 77 77 89 88 81 70 69 74 67 54 51 54 67 78 69 57 48 52 50
21 19 18 18 18 18 18 18 18 18 18 19 19 19 20 20 20 21 22 22 22 27 33 37 49 69 82 82 94 90 86 91 94 73 58 67 63 68 67 69 52 49 52
21 20 19 19 19 19 19 19 19 19 19 19 20 20 20 20 21 21 21 22 24 26 32 30 30 31 39 50 60 76 90 93 89 93 83 73 76 78 80 71 56 52 54
22 21 20 20 20 20 20 20 20 20 21 21 22 22 23 22 23 23 23 23 23 23 25 30 30 33 30 26 35 51 74 72 84 92 80 73 74 96 98 78 68 57 56
24 23 22 22 22 21 21 21 21 21 21 22 23 22 24 25 24 23 24 25 25 25 25 25 27 33 35 32 27 24 27 49 68 79 69 71 76 67 94 89 80 64 60
24 23 23 22 21 21 19 18 18 18 18 18 19 20 22 22 22 22 22 22 22 22 23 25 25 28 32 37 38 34 26 21 22 37 51 59 58 56 80 81 80 69 69
23 22 22 21 20 19 18 17 17 17 18 18 19 20 22 23 24 24 25 23 22 23 23 24 26 25 26 29 34 37 39 28 22 21 20 22 30 37 55 66 74 70 75
25 24 23 22 20 19 19 19 19 20 20 21 23 25 26 26 26 26 27 26 26 26 26 27 27 26 24 25 27 29 31 32 28 23 21 19 18 24 36 49 61 74 81
27 27 25 24 23 22 23 24 24 25 25 27 27 27 28 29 28 28 28 29 28 28 28 28 29 30 29 29 30 32 33 30 28 26 21 19 17 19 26 40 56 68 80
29 28 27 26 28 27 27 27 28 29 29 29 29 30 31 31 32 32 33 33 31 30 30 30 31 33 32 32 35 40 39 36 33 26 25 27 23 20 22 34 45 56 67
30 32 31 31 31 31 30 28 30 32 33 34 35 37 37 39 39 40 39 39 39 36 34 34 33 33 34 33 33 36 41 44 46 44 50 50 43 33 29 31 41 48 59
32 33 33 34 34 34 28 30 32 35 41 44 48 49 49 48 49 49 50 49 48 45 43 41 40 40 38 36 35 36 37 40 44 48 44 39 52 62 55 41 34 43 61
34 35 35 35 35 33 28 35 36 41 47 51 54 55 56 57 60 62 62 61 59 57 56 54 51 48 45 42 40 40 41 43 47 50 49 40 38 42 51 70 85 59 57

GFSSE_prec_cthk_147.txt.gz
RH
53 34 28 24 24 25 27 28 27 28 29 30 30 30 27 24 22 22 23 22 20 20 21 23 25 25 24 27 30 31 32 36 42 45 47 51 49 49 49 53 54 56 57
59 39 31 29 29 30 32 34 34 33 34 35 35 35 34 31 27 23 24 25 25 23 22 24 24 24 25 26 27 29 32 36 43 44 47 52 50 51 53 59 59 59 59
49 42 35 32 33 34 35 34 34 34 35 35 36 37 37 37 34 30 27 27 27 28 24 24 25 25 24 25 28 29 32 38 41 43 49 48 51 52 54 59 64 60 65
43 42 40 35 35 33 34 34 34 34 36 37 37 37 38 38 39 38 36 32 31 32 34 30 27 26 26 25 26 29 33 39 42 43 54 71 64 57 55 59 63 61 64
49 42 37 36 35 36 36 36 35 35 37 38 40 41 41 41 43 48 50 51 44 39 38 41 33 29 28 28 27 28 32 40 43 44 52 61 71 71 60 61 65 63 63
45 35 35 35 37 37 37 37 38 38 38 39 41 43 45 46 47 48 49 53 52 48 43 41 37 37 33 30 30 29 31 38 43 45 45 55 70 64 65 64 68 63 64
33 35 36 36 36 36 35 34 36 37 38 39 40 42 45 47 51 53 53 52 54 55 52 46 41 38 37 36 33 32 33 38 43 44 42 52 70 67 65 64 68 66 64
31 33 34 35 34 34 36 36 36 37 38 39 40 43 45 48 53 55 58 59 60 59 57 54 47 43 39 39 40 35 35 37 44 46 44 47 64 74 54 66 64 64 64
34 35 36 37 36 36 35 35 34 34 36 37 38 38 39 42 45 50 56 60 62 63 59 58 53 46 44 40 40 43 39 39 42 49 51 48 70 76 60 60 64 63 64
34 35 36 36 35 33 32 30 29 28 27 28 30 30 28 29 32 37 48 57 58 63 67 68 64 58 52 51 45 42 42 42 40 48 50 52 50 60 79 69 66 62 62
35 34 33 33 32 30 27 26 24 23 21 20 21 21 22 23 27 32 38 45 54 62 63 61 65 70 63 64 59 52 47 46 47 50 51 50 52 68 73 77 77 57 57
33 31 30 28 25 22 20 20 19 19 19 19 17 17 18 18 19 21 28 33 42 56 62 65 61 63 66 69 67 67 59 54 50 51 56 58 56 54 56 67 69 57 51
30 26 22 21 20 19 18 18 18 17 17 17 17 17 17 17 18 18 17 18 22 29 44 59 64 67 68 69 73 76 75 65 58 57 61 69 71 54 51 66 76 65 48
20 19 19 18 17 17 17 17 17 17 17 17 17 17 16 16 17 17 18 19 20 19 20 27 40 56 68 71 74 77 83 79 75 76 79 72 73 66 64 65 82 77 57
18 18 17 17 17 17 17 16 16 17 17 18 18 18 17 17 17 17 18 19 19 21 22 22 22 26 35 46 66 75 92 96 78 85 91 92 88 80 77 83 81 85 72
18 18 18 17 17 17 17 18 19 19 19 19 19 19 19 19 19 19 19 19 20 21 21 24 27 27 25 24 29 37 43 51 70 71 72 92 96 94 87 80 81 87 85
19 19 19 19 19 20 20 20 19 18 18 18 17 17 17 18 17 17 18 20 21 21 22 22 23 28 32 29 25 28 27 31 41 60 74 88 82 90 89 77 78 76 83
22 21 20 20 20 19 18 17 16 16 16 15 15 15 17 17 18 17 16 16 17 17 20 22 23 23 24 30 32 29 30 27 33 32 51 59 58 78 85 67 64 74 86
21 20 19 18 18 18 17 16 16 16 15 15 15 16 16 18 19 19 19 20 18 18 18 19 20 23 23 24 28 32 32 32 28 25 33 43 56 64 70 60 59 59 77
20 19 19 19 18 18 17 17 18 17 18 18 18 18 19 19 20 21 22 23 24 24 22 21 21 22 26 27 25 25 30 32 28 28 24 22 31 47 49 52 52 50 64
21 21 21 20 19 19 19 19 19 19 19 19 20 21 20 21 21 22 22 23 24 26 28 27 25 25 24 27 28 25 22 27 35 28 26 23 21 20 24 34 38 44 53
22 22 22 23 22 21 22 22 21 20 20 22 23 24 25 25 26 26 26 26 27 28 29 30 32 29 27 31 33 32 28 23 22 23 24 22 21 20 19 19 26 34 43
24 25 25 25 24 23 24 22 21 19 20 23 24 26 30 31 33 35 36 36 36 35 33 33 34 35 34 32 36 41 41 38 32 27 25 26 24 22 21 23 21 23 33
28 28 27 27 26 25 25 22 20 21 22 24 24 29 37 38 41 44 46 46 46 45 42 41 40 39 39 38 36 41 44 43 46 39 36 37 37 34 33 35 31 30 29
31 30 30 30 28 27 27 21 20 22 24 26 31 33 38 44 48 51 53 56 56 55 55 56 53 51 48 45 43 40 42 44 45 45 37 35 42 45 45 41 37 36 36
35 32 31 31 29 28 26 22 20 22 27 30 36 42 49 59 57 61 64 66 66 67 66 67 66 63 60 56 50 48 46 45 46 49 45 39 37 39 46 48 56 49 49

GFSSE_prec_cthk_150.txt.gz
RH
70 49 35 30 28 28 27 29 31 32 32 31 31 31 29 26 24 23 23 23 22 22 22 23 25 27 26 28 33 36 34 35 40 44 44 46 46 44 43 46 50 55 55
50 41 39 37 33 32 32 35 35 35 35 34 34 34 34 33 30 26 24 23 24 25 25 24 24 26 26 26 28 30 33 35 38 40 43 47 45 46 47 48 50 52 56
62 53 44 46 40 36 35 34 34 35 35 36 36 36 35 35 35 33 28 26 26 27 27 28 28 26 26 26 27 29 31 35 38 41 46 57 60 55 54 55 54 54 57
76 61 52 52 42 37 35 36 36 36 35 36 37 39 39 38 38 37 36 35 33 32 33 32 31 32 29 27 27 29 31 35 37 39 44 55 70 70 69 62 58 56 57
70 62 57 47 40 38 38 37 37 36 36 37 38 38 39 41 43 43 43 43 42 40 38 36 37 34 34 33 31 31 30 35 36 39 43 51 61 69 77 76 67 61 58
65 51 50 41 39 39 37 36 34 34 35 36 37 39 41 42 42 45 47 47 46 44 41 40 40 41 39 37 37 37 34 36 37 38 41 47 59 74 76 72 72 68 63
42 45 41 41 39 35 33 33 33 34 34 35 36 37 40 42 43 44 48 49 49 48 49 50 45 44 43 42 41 40 40 38 42 41 40 43 52 71 73 74 71 71 65
34 36 37 36 35 34 33 33 34 34 34 35 36 37 38 39 41 43 46 50 52 51 53 55 54 55 52 49 45 46 45 44 42 44 45 44 50 63 70 81 68 74 67
35 36 35 35 35 35 34 33 32 29 28 29 29 30 29 29 30 32 37 40 47 50 51 53 57 60 62 60 51 52 52 47 48 47 44 45 49 56 67 79 65 67 68
33 33 34 35 35 34 33 32 28 25 23 23 22 22 22 22 23 27 30 33 38 46 50 52 55 59 64 67 63 54 56 59 51 49 51 45 49 55 53 65 74 74 67
33 33 33 33 34 33 31 28 23 20 19 18 18 18 18 18 18 20 24 29 34 38 45 50 55 58 60 67 72 68 64 59 58 56 56 55 52 53 54 64 83 80 83
30 31 32 33 30 26 21 20 19 18 18 17 17 17 17 17 17 17 17 18 20 25 33 43 53 60 64 68 66 71 71 69 63 62 62 63 59 58 59 70 78 76 77
31 32 29 25 21 19 18 17 17 17 17 17 16 16 16 16 16 16 16 16 16 16 16 18 28 43 57 63 68 73 74 74 72 72 68 70 72 68 74 75 69 73 76
26 21 19 18 18 17 17 17 17 17 17 16 16 16 16 16 16 16 16 16 16 16 16 17 18 19 24 34 49 69 77 81 84 86 80 78 80 77 81 86 77 82 78
17 17 17 17 17 17 17 17 17 18 18 18 17 17 17 17 17 17 17 17 16 16 17 16 17 19 22 23 24 29 40 63 76 86 86 79 83 79 76 86 93 83 96
17 17 17 17 18 19 19 19 18 17 16 15 15 14 14 14 13 13 14 14 15 16 17 18 17 17 18 22 24 25 25 30 39 53 55 79 74 62 59 74 98 94 95
18 19 20 21 21 20 18 16 15 15 15 15 14 14 14 14 14 13 13 12 12 12 13 14 16 18 18 19 22 25 27 28 29 31 38 46 55 52 53 65 68 84 90
22 22 21 19 17 16 15 15 15 16 16 16 16 16 16 16 16 16 15 15 14 14 14 14 13 14 15 18 20 22 26 28 31 32 33 36 46 58 58 57 52 71 78
23 21 19 18 17 16 16 17 17 18 18 18 17 17 17 17 17 17 17 17 16 16 16 16 16 15 15 16 17 19 22 28 31 32 33 32 34 39 56 49 56 64 70
21 20 19 18 17 18 19 19 20 20 19 18 18 18 18 18 19 19 19 19 19 18 17 18 19 19 19 17 17 18 19 22 28 34 34 31 27 35 47 54 60 71 67
22 21 20 19 20 20 21 21 21 20 19 17 17 16 15 18 19 20 21 23 24 25 25 26 25 22 21 23 21 19 18 20 22 25 31 34 30 27 25 35 54 63 68
24 22 22 22 22 23 23 23 22 21 19 17 18 16 17 19 21 24 26 28 31 31 33 34 33 32 30 30 30 29 23 22 23 21 23 29 32 29 26 25 26 28 33
26 26 26 27 25 25 25 25 23 20 18 19 18 18 21 24 27 30 32 36 37 39 42 44 43 41 38 37 37 38 37 36 32 28 25 23 27 29 27 27 25 26 24
30 31 31 31 30 29 27 24 21 18 17 18 17 22 27 32 32 37 41 46 48 52 54 54 54 51 48 46 44 44 41 41 40 37 37 34 33 36 36 33 31 32 35
37 35 35 34 34 30 26 24 21 18 18 17 19 23 29 28 41 46 51 58 67 69 66 65 64 62 60 57 56 53 49 45 42 42 36 42 41 41 43 43 43 40 39
39 39 39 37 35 29 26 23 21 18 19 20 20 22 25 32 46 57 69 78 81 78 75 74 74 73 71 70 68 66 59 54 52 50 48 40 44 45 47 50 52 47 47

GFSSE_prec_cthk_153.txt.gz
RH
66 62 52 37 32 27 27 29 31 34 35 34 33 32 30 29 29 26 26 25 24 24 24 25 27 27 28 25 26 27 29 30 32 36 42 47 44 44 43 44 47 49 51
63 56 43 41 36 33 34 36 36 37 36 35 36 35 34 34 31 29 28 28 27 27 27 27 27 28 29 30 28 27 28 29 31 34 37 48 54 47 49 48 49 51 52
61 53 42 42 42 42 40 37 36 38 38 37 37 37 36 36 36 35 33 30 30 30 32 34 33 33 33 30 29 30 28 30 33 35 36 42 55 69 70 64 59 55 56
53 51 59 52 47 44 38 39 40 40 39 37 38 38 38 39 39 40 40 39 36 35 37 38 38 37 38 37 33 31 32 32 34 36 37 40 48 61 72 79 72 60 57
56 59 59 53 48 42 40 41 41 40 39 38 39 39 39 40 42 44 46 46 47 46 43 40 38 41 42 42 39 36 33 33 35 37 38 40 47 53 65 74 77 66 63
63 62 58 52 48 44 41 41 39 36 37 38 39 39 39 40 42 44 47 49 50 51 50 49 44 43 41 43 44 43 41 36 37 39 41 42 44 51 65 74 72 71 66
58 52 49 47 45 43 39 37 36 36 37 37 36 36 36 38 40 43 45 48 50 52 52 54 56 55 50 44 46 46 46 43 41 43 43 45 45 47 59 73 77 70 71
52 52 49 46 42 40 38 36 36 37 37 35 33 33 32 31 31 33 36 38 43 45 49 52 54 56 59 57 54 50 49 47 47 46 46 45 46 47 52 58 68 77 69
49 46 44 43 41 39 37 36 36 35 34 28 26 24 24 23 23 25 28 31 35 37 42 47 50 52 54 56 56 60 61 54 51 50 47 47 48 46 50 52 60 73 71
43 42 41 40 39 38 38 38 37 33 27 21 20 19 18 18 19 21 23 26 29 33 37 45 50 53 55 56 56 61 64 64 56 54 53 53 52 53 57 55 61 65 71
37 37 37 37 37 38 37 34 28 22 19 18 18 17 17 17 17 17 18 19 21 26 31 37 43 49 54 57 59 62 67 70 65 56 52 51 54 57 62 62 57 60 67
35 33 33 34 35 34 30 23 18 17 16 16 16 16 16 16 16 16 16 16 16 16 17 20 26 33 43 53 59 62 66 73 73 70 64 55 54 57 63 67 64 67 80
28 30 32 32 28 23 19 17 16 16 16 16 16 16 16 16 15 15 15 15 15 15 16 16 18 19 21 28 41 52 64 70 71 79 73 65 58 58 60 67 74 82 89
29 28 25 20 18 17 17 16 16 16 16 17 17 16 15 15 15 15 15 15 15 15 15 15 16 16 18 22 23 24 34 49 66 74 75 77 71 66 69 68 68 75 79
21 16 16 16 16 17 17 17 17 18 17 16 14 13 13 13 12 12 12 12 13 14 14 15 15 15 16 17 19 23 24 24 31 47 66 74 84 90 77 78 75 74 67
17 16 16 16 17 18 19 18 17 14 13 13 13 13 13 13 13 13 13 12 12 12 12 11 12 13 15 16 17 18 21 24 24 24 31 53 72 80 80 73 76 69 57
16 17 19 21 21 20 17 15 15 14 14 14 14 15 15 15 15 15 14 14 14 13 12 12 12 11 11 12 14 16 19 20 25 25 25 26 35 48 60 64 56 56 49
21 22 22 21 19 18 16 16 15 16 16 16 16 16 15 15 14 14 14 14 14 14 14 14 13 12 12 12 11 11 13 17 21 25 26 26 27 30 38 44 44 50 56
27 26 24 21 20 18 18 18 18 18 18 18 17 17 16 15 15 15 16 16 16 16 16 16 16 16 15 14 12 12 11 12 14 20 26 27 27 28 31 40 46 52 54
31 27 25 24 22 21 21 21 20 20 19 19 17 17 16 16 16 17 18 17 18 18 19 20 20 19 20 19 17 14 12 12 12 14 19 27 29 29 34 34 47 50 57
32 29 27 26 25 25 25 24 23 23 22 19 18 18 17 17 17 19 19 21 22 22 24 25 25 25 26 27 27 23 17 13 12 12 15 20 26 31 32 27 28 44 55
33 31 29 29 29 30 28 27 28 26 21 19 19 18 17 18 18 19 21 23 25 28 29 32 36 37 39 41 40 36 30 24 19 14 14 17 22 30 35 34 32 30 39
34 32 32 32 32 31 30 31 30 25 22 20 20 18 17 16 16 20 23 28 34 39 44 51 55 60 58 57 55 50 44 42 34 30 26 20 23 29 35 41 39 33 31
35 36 36 36 35 34 34 34 31 25 22 20 20 18 16 15 18 22 33 40 46 53 63 66 68 73 73 69 65 61 52 48 48 42 40 38 35 35 39 43 42 40 38
40 40 41 41 41 40 39 35 29 26 22 22 22 18 14 17 19 31 42 50 58 67 73 75 76 77 76 75 73 70 65 57 53 50 47 48 45 45 51 50 54 49 47
43 45 46 46 44 43 39 34 30 26 22 24 20 14 16 17 20 32 47 59 68 76 81 84 88 89 88 86 84 79 74 70 66 61 54 57 59 56 60 63 58 56 53